GFSGBSN_prec_precacc_132.txt.gz
Total_Precipitation_Accumulation
0.20 0.18 0.20 0.22 0.22 0.15 0.09 0.06 0.05 0.04 0.02 0.02 0.02 0.01 0.02 0.02 0.02 0.02 0.02 0.01 0.00 0.01 0.01 0.00 0.01 0.02 0.01 0.00 0.00 0.00 0.00 0.00 0.00 0.00 0.00 0.00 0.00 0.00 0.00 0.00 0.00 0.00 0.00 0.00 0.00 0.00 0.00
0.19 0.18 0.16 0.17 0.13 0.11 0.11 0.12 0.09 0.03 0.02 0.02 0.01 0.01 0.00 0.01 0.02 0.02 0.01 0.00 0.01 0.01 0.01 0.01 0.01 0.03 0.01 0.00 0.00 0.00 0.00 0.00 0.00 0.00 0.00 0.00 0.00 0.00 0.00 0.00 0.00 0.00 0.00 0.00 0.00 0.00 0.00
0.29 0.23 0.19 0.18 0.15 0.13 0.12 0.10 0.10 0.06 0.04 0.04 0.02 0.02 0.01 0.00 0.01 0.01 0.01 0.01 0.00 0.01 0.01 0.01 0.02 0.04 0.01 0.00 0.00 0.00 0.00 0.00 0.00 0.00 0.00 0.00 0.00 0.00 0.00 0.00 0.00 0.00 0.00 0.00 0.00 0.00 0.00
0.27 0.23 0.23 0.24 0.21 0.17 0.11 0.08 0.08 0.07 0.06 0.04 0.03 0.02 0.01 0.00 0.00 0.00 0.01 0.00 0.00 0.01 0.01 0.01 0.02 0.03 0.00 0.00 0.00 0.00 0.00 0.00 0.00 0.00 0.00 0.00 0.00 0.00 0.00 0.00 0.00 0.00 0.00 0.00 0.00 0.00 0.00
0.32 0.28 0.23 0.20 0.19 0.16 0.16 0.12 0.09 0.07 0.06 0.06 0.05 0.03 0.02 0.01 0.01 0.01 0.02 0.00 0.00 0.01 0.01 0.01 0.01 0.02 0.00 0.00 0.00 0.00 0.00 0.00 0.00 0.00 0.00 0.00 0.00 0.00 0.00 0.00 0.00 0.00 0.00 0.00 0.00 0.00 0.00
0.31 0.28 0.23 0.20 0.21 0.23 0.23 0.20 0.14 0.11 0.10 0.09 0.06 0.04 0.03 0.02 0.00 0.01 0.01 0.00 0.00 0.00 0.00 0.00 0.02 0.01 0.00 0.00 0.00 0.00 0.00 0.01 0.02 0.00 0.00 0.00 0.00 0.00 0.00 0.00 0.00 0.00 0.00 0.00 0.00 0.00 0.00
0.44 0.37 0.30 0.25 0.21 0.20 0.20 0.22 0.24 0.19 0.15 0.13 0.09 0.06 0.05 0.03 0.01 0.03 0.01 0.00 0.00 0.01 0.01 0.01 0.01 0.01 0.00 0.00 0.00 0.00 0.00 0.00 0.01 0.01 0.01 0.03 0.00 0.00 0.01 0.00 0.00 0.00 0.00 0.00 0.00 0.00 0.00
0.45 0.41 0.37 0.33 0.30 0.31 0.31 0.32 0.27 0.20 0.17 0.13 0.11 0.09 0.07 0.05 0.05 0.06 0.01 0.00 0.01 0.08 0.11 0.00 0.00 0.00 0.00 0.00 0.00 0.00 0.00 0.01 0.02 0.04 0.05 0.04 0.04 0.00 0.00 0.00 0.00 0.02 0.02 0.00 0.00 0.00 0.00
0.54 0.48 0.42 0.35 0.32 0.30 0.29 0.29 0.28 0.28 0.23 0.15 0.12 0.12 0.12 0.08 0.06 0.02 0.01 0.00 0.00 0.06 0.17 0.01 0.00 0.00 0.00 0.01 0.00 0.00 0.00 0.00 0.05 0.11 0.06 0.09 0.03 0.00 0.00 0.00 0.01 0.01 0.01 0.00 0.00 0.00 0.02
0.65 0.61 0.52 0.44 0.37 0.34 0.32 0.31 0.27 0.23 0.21 0.17 0.15 0.13 0.13 0.15 0.08 0.02 0.01 0.00 0.02 0.20 0.30 0.01 0.02 0.03 0.04 0.07 0.01 0.00 0.00 0.00 0.07 0.09 0.09 0.21 0.04 0.02 0.03 0.02 0.01 0.06 0.00 0.00 0.02 0.08 0.10
0.69 0.60 0.52 0.47 0.44 0.41 0.37 0.31 0.27 0.25 0.24 0.26 0.22 0.15 0.17 0.25 0.15 0.10 0.02 0.00 0.12 0.31 0.17 0.01 0.11 0.05 0.07 0.05 0.01 0.06 0.00 0.00 0.02 0.07 0.20 0.33 0.21 0.24 0.22 0.05 0.02 0.07 0.00 0.01 0.01 0.02 0.08
0.72 0.61 0.51 0.44 0.44 0.42 0.39 0.35 0.29 0.27 0.22 0.21 0.26 0.22 0.30 0.27 0.13 0.02 0.01 0.08 0.26 0.59 0.15 0.03 0.14 0.10 0.14 0.09 0.01 0.02 0.01 0.00 0.00 0.05 0.06 0.10 0.03 0.06 0.05 0.00 0.01 0.02 0.02 0.03 0.05 0.09 0.22
1.13 0.90 0.75 0.60 0.56 0.51 0.44 0.39 0.32 0.28 0.22 0.21 0.24 0.26 0.32 0.17 0.13 0.09 0.17 0.45 0.70 0.33 0.02 0.02 0.08 0.25 0.16 0.20 0.22 0.05 0.02 0.00 0.00 0.03 0.07 0.07 0.06 0.05 0.03 0.12 0.05 0.05 0.04 0.14 0.31 0.24 0.12
2.14 1.40 1.07 0.86 0.62 0.54 0.47 0.44 0.38 0.29 0.23 0.29 0.28 0.27 0.26 0.16 0.08 0.11 0.36 0.90 0.55 0.21 0.01 0.00 0.11 0.23 0.24 0.17 0.24 0.05 0.02 0.02 0.02 0.02 0.04 0.05 0.19 0.07 0.05 0.27 0.12 0.05 0.05 0.10 0.35 0.22 0.19
2.92 2.72 2.00 1.35 1.02 0.77 0.60 0.49 0.43 0.37 0.34 0.32 0.48 0.39 0.34 0.13 0.10 0.31 0.79 0.67 0.21 0.16 0.00 0.00 0.01 0.10 0.11 0.11 0.45 0.54 0.44 0.13 0.10 0.06 0.20 0.14 0.18 0.08 0.04 0.05 0.06 0.08 0.06 0.04 0.19 0.23 0.31
2.07 2.34 2.66 2.73 1.54 1.00 0.75 0.57 0.43 0.48 0.53 0.54 0.62 0.63 0.31 0.12 0.37 0.82 1.16 0.46 0.04 0.02 0.00 0.00 0.00 0.02 0.12 0.08 0.23 0.85 0.41 0.17 0.04 0.02 0.10 0.19 0.23 0.09 0.12 0.08 0.05 0.04 0.03 0.09 0.19 0.46 0.38
1.46 1.59 1.79 2.12 2.35 1.45 1.01 0.74 0.66 0.54 0.61 0.86 1.34 1.28 0.34 0.16 1.09 1.76 1.13 0.25 0.02 0.00 0.01 0.02 0.02 0.05 0.06 0.07 0.14 0.37 0.44 0.40 0.09 0.05 0.06 0.13 0.28 0.17 0.18 0.26 0.06 0.04 0.06 0.10 0.19 0.20 0.35
1.30 1.37 1.32 1.41 1.59 1.54 1.42 1.04 0.78 0.72 0.81 1.57 2.17 1.55 0.44 0.46 1.46 1.20 0.39 0.10 0.05 0.01 0.01 0.05 0.03 0.04 0.17 0.21 0.11 0.11 0.22 0.34 0.23 0.25 0.10 0.09 0.18 0.16 0.04 0.10 0.04 0.05 0.08 0.10 0.27 0.22 0.27
1.18 1.30 1.13 1.09 1.20 1.26 1.32 1.37 0.99 0.89 1.18 1.84 2.43 1.50 1.21 0.89 0.90 0.29 0.16 0.15 0.10 0.07 0.03 0.04 0.07 0.06 0.10 0.15 0.12 0.17 0.15 0.13 0.17 0.19 0.25 0.15 0.32 0.51 0.34 0.16 0.09 0.11 0.06 0.13 0.26 0.20 0.33
1.16 1.19 1.03 1.03 1.08 1.11 1.10 1.22 1.34 1.24 1.32 2.02 2.86 2.05 2.17 1.59 0.57 0.21 0.21 0.25 0.19 0.08 0.07 0.04 0.03 0.03 0.05 0.05 0.05 0.13 0.18 0.16 0.06 0.10 0.14 0.16 0.21 0.48 0.77 0.61 0.48 0.24 0.07 0.05 0.10 0.16 0.30
1.17 1.05 0.96 0.96 1.05 1.17 1.17 1.12 1.37 1.61 1.70 3.46 3.95 1.38 0.65 1.01 0.48 0.14 0.19 0.24 0.22 0.19 0.08 0.07 0.09 0.07 0.05 0.07 0.05 0.06 0.14 0.17 0.13 0.12 0.21 0.26 0.21 0.16 0.12 0.17 0.64 0.49 0.17 0.14 0.18 0.10 0.17
1.16 0.97 0.91 0.96 1.05 1.25 1.38 1.36 1.43 1.88 2.47 4.83 4.09 0.79 0.21 0.10 0.13 0.32 0.22 0.12 0.15 0.12 0.18 0.13 0.12 0.10 0.08 0.10 0.12 0.11 0.11 0.22 0.17 0.15 0.23 0.38 0.37 0.13 0.06 0.06 0.38 0.40 0.15 0.11 0.13 0.14 0.24
0.95 0.93 0.82 0.86 0.89 0.99 1.13 1.37 1.58 2.26 4.07 6.19 3.16 0.44 0.35 0.27 0.19 0.33 0.28 0.12 0.10 0.07 0.06 0.08 0.08 0.10 0.14 0.09 0.12 0.10 0.09 0.10 0.11 0.11 0.21 0.31 0.46 0.38 0.21 0.09 0.37 0.73 0.74 0.49 0.36 0.44 0.30
0.68 0.73 0.77 0.66 0.76 0.71 0.77 0.89 1.24 2.10 4.36 4.55 2.18 0.41 0.79 0.62 0.24 0.15 0.05 0.06 0.06 0.05 0.07 0.04 0.09 0.12 0.07 0.11 0.10 0.10 0.10 0.07 0.06 0.07 0.09 0.26 0.35 0.39 0.26 0.27 0.71 0.89 0.65 0.68 0.89 0.66 0.76
0.66 0.67 0.75 0.65 0.69 0.73 0.70 0.68 0.94 1.28 3.01 4.08 2.46 0.73 0.71 0.60 0.16 0.12 0.11 0.12 0.11 0.09 0.09 0.08 0.08 0.17 0.19 0.28 0.29 0.25 0.24 0.24 0.16 0.09 0.10 0.10 0.24 0.55 0.45 0.46 0.55 0.39 0.25 0.27 0.43 0.37 0.30
0.67 0.70 0.79 0.74 0.66 0.69 0.67 0.65 0.71 0.79 1.62 3.44 3.56 1.70 1.41 0.83 0.28 0.08 0.09 0.09 0.16 0.28 0.24 0.14 0.23 0.21 0.32 0.48 0.60 0.41 0.30 0.30 0.31 0.37 0.13 0.15 0.18 0.41 0.35 0.34 0.28 0.42 0.29 0.10 0.26 0.59 0.35
0.63 0.74 0.79 0.80 0.71 0.67 0.71 0.62 0.50 0.64 1.14 2.10 2.71 2.02 3.02 1.88 0.29 0.16 0.17 0.12 0.11 0.39 0.52 0.36 0.43 0.48 0.48 0.51 0.46 0.33 0.26 0.18 0.26 0.60 0.51 0.23 0.30 0.39 0.27 0.36 0.26 0.11 0.17 0.20 0.82 0.97 0.50
0.66 0.77 0.74 0.71 0.64 0.66 0.75 0.63 0.50 0.62 1.17 1.89 1.82 1.24 3.18 1.94 0.44 0.30 0.21 0.09 0.09 0.42 0.73 0.49 0.64 0.68 0.73 0.58 0.40 0.31 0.24 0.18 0.21 0.46 0.78 0.61 0.43 0.47 0.50 0.49 0.35 0.09 0.19 0.67 1.28 0.67 0.67
0.67 0.80 0.75 0.70 0.56 0.54 0.68 0.65 0.64 0.77 1.35 1.66 1.56 1.20 2.24 2.40 0.95 0.43 0.33 0.12 0.08 0.16 0.48 0.61 0.52 0.40 0.32 0.52 0.44 0.29 0.22 0.21 0.19 0.43 0.71 0.79 0.42 0.56 0.39 0.45 0.31 0.20 0.27 0.23 0.16 0.15 0.11

GFSGBSN_prec_precacc_135.txt.gz
Total_Precipitation_Accumulation
0.20 0.18 0.23 0.25 0.24 0.17 0.13 0.11 0.08 0.05 0.03 0.02 0.02 0.01 0.02 0.02 0.02 0.02 0.02 0.01 0.00 0.01 0.01 0.00 0.01 0.02 0.01 0.00 0.00 0.00 0.00 0.00 0.00 0.00 0.00 0.00 0.00 0.00 0.00 0.00 0.00 0.00 0.00 0.00 0.00 0.00 0.00
0.19 0.18 0.16 0.19 0.18 0.15 0.13 0.15 0.17 0.16 0.13 0.08 0.02 0.01 0.00 0.01 0.02 0.02 0.01 0.00 0.01 0.01 0.01 0.01 0.01 0.03 0.01 0.00 0.00 0.00 0.00 0.00 0.00 0.00 0.00 0.00 0.00 0.00 0.00 0.00 0.00 0.00 0.00 0.00 0.00 0.00 0.00
0.29 0.23 0.19 0.18 0.16 0.16 0.15 0.11 0.11 0.12 0.14 0.10 0.04 0.02 0.01 0.00 0.01 0.01 0.01 0.01 0.00 0.01 0.01 0.01 0.02 0.04 0.01 0.00 0.00 0.00 0.00 0.00 0.00 0.00 0.00 0.00 0.00 0.00 0.00 0.00 0.00 0.00 0.00 0.00 0.00 0.00 0.00
0.28 0.23 0.23 0.24 0.21 0.17 0.13 0.10 0.10 0.09 0.09 0.09 0.05 0.02 0.01 0.00 0.00 0.00 0.01 0.00 0.00 0.01 0.01 0.01 0.02 0.03 0.00 0.00 0.00 0.00 0.00 0.00 0.00 0.00 0.00 0.00 0.00 0.00 0.00 0.00 0.00 0.00 0.00 0.00 0.00 0.00 0.00
0.33 0.28 0.23 0.20 0.19 0.16 0.16 0.15 0.12 0.09 0.08 0.09 0.10 0.05 0.03 0.01 0.01 0.01 0.02 0.00 0.00 0.01 0.01 0.01 0.01 0.02 0.00 0.00 0.00 0.00 0.00 0.00 0.00 0.00 0.00 0.00 0.00 0.00 0.00 0.00 0.00 0.00 0.00 0.00 0.00 0.00 0.00
0.32 0.28 0.23 0.21 0.21 0.23 0.23 0.20 0.16 0.14 0.12 0.09 0.07 0.08 0.06 0.03 0.01 0.01 0.01 0.00 0.00 0.00 0.00 0.00 0.02 0.01 0.00 0.00 0.00 0.00 0.00 0.01 0.02 0.00 0.00 0.00 0.00 0.00 0.00 0.00 0.00 0.00 0.00 0.00 0.00 0.00 0.00
0.44 0.37 0.31 0.25 0.21 0.20 0.20 0.22 0.24 0.21 0.18 0.14 0.10 0.08 0.08 0.04 0.02 0.03 0.01 0.00 0.00 0.01 0.01 0.01 0.01 0.01 0.00 0.00 0.00 0.00 0.00 0.00 0.01 0.01 0.01 0.03 0.00 0.00 0.01 0.00 0.00 0.00 0.00 0.00 0.00 0.00 0.00
0.45 0.42 0.37 0.33 0.30 0.31 0.31 0.32 0.27 0.21 0.18 0.15 0.12 0.10 0.09 0.06 0.05 0.06 0.01 0.00 0.01 0.08 0.11 0.00 0.00 0.00 0.00 0.00 0.00 0.00 0.00 0.01 0.02 0.04 0.05 0.04 0.04 0.00 0.00 0.00 0.00 0.02 0.02 0.00 0.00 0.00 0.00
0.54 0.49 0.42 0.36 0.32 0.30 0.29 0.29 0.28 0.29 0.25 0.17 0.13 0.13 0.13 0.09 0.07 0.03 0.01 0.00 0.00 0.06 0.17 0.01 0.00 0.00 0.00 0.01 0.00 0.00 0.00 0.00 0.05 0.11 0.06 0.09 0.03 0.00 0.00 0.00 0.01 0.01 0.01 0.00 0.00 0.00 0.02
0.65 0.61 0.52 0.45 0.37 0.34 0.32 0.31 0.27 0.24 0.24 0.21 0.18 0.15 0.15 0.16 0.08 0.04 0.03 0.00 0.02 0.20 0.32 0.01 0.02 0.03 0.04 0.07 0.01 0.00 0.00 0.00 0.07 0.09 0.09 0.21 0.04 0.02 0.03 0.02 0.01 0.06 0.00 0.00 0.02 0.08 0.10
0.69 0.61 0.52 0.47 0.44 0.41 0.37 0.31 0.27 0.26 0.27 0.31 0.26 0.18 0.19 0.25 0.15 0.10 0.04 0.01 0.13 0.32 0.24 0.02 0.11 0.05 0.07 0.05 0.01 0.06 0.00 0.00 0.02 0.07 0.20 0.33 0.21 0.24 0.22 0.05 0.02 0.07 0.00 0.01 0.01 0.02 0.08
0.72 0.61 0.52 0.44 0.44 0.42 0.39 0.35 0.29 0.28 0.25 0.25 0.29 0.24 0.31 0.28 0.14 0.03 0.01 0.09 0.28 0.64 0.20 0.03 0.14 0.10 0.14 0.09 0.01 0.02 0.01 0.00 0.00 0.05 0.06 0.10 0.03 0.06 0.05 0.00 0.01 0.02 0.02 0.03 0.05 0.09 0.22
1.13 0.90 0.76 0.60 0.56 0.51 0.44 0.39 0.33 0.30 0.26 0.25 0.27 0.27 0.32 0.17 0.15 0.11 0.18 0.48 0.75 0.37 0.03 0.02 0.08 0.25 0.16 0.20 0.22 0.05 0.02 0.00 0.00 0.03 0.07 0.07 0.06 0.05 0.03 0.12 0.05 0.05 0.04 0.14 0.31 0.24 0.12
2.15 1.40 1.07 0.86 0.62 0.54 0.47 0.45 0.39 0.33 0.30 0.35 0.32 0.29 0.26 0.17 0.10 0.15 0.40 0.98 0.66 0.24 0.02 0.00 0.11 0.23 0.24 0.17 0.24 0.05 0.02 0.02 0.02 0.02 0.04 0.05 0.19 0.07 0.05 0.27 0.12 0.05 0.05 0.10 0.35 0.22 0.19
2.93 2.73 2.00 1.35 1.02 0.77 0.61 0.52 0.51 0.48 0.47 0.41 0.54 0.40 0.35 0.14 0.12 0.36 0.88 0.80 0.26 0.17 0.01 0.00 0.01 0.10 0.11 0.11 0.45 0.54 0.44 0.13 0.10 0.06 0.20 0.14 0.18 0.08 0.04 0.05 0.07 0.08 0.07 0.05 0.20 0.23 0.31
2.08 2.34 2.66 2.73 1.57 1.08 0.86 0.67 0.53 0.61 0.62 0.58 0.63 0.65 0.34 0.15 0.41 0.91 1.30 0.54 0.05 0.02 0.00 0.00 0.00 0.02 0.12 0.08 0.23 0.85 0.41 0.17 0.04 0.02 0.10 0.19 0.23 0.09 0.12 0.08 0.05 0.04 0.04 0.10 0.21 0.48 0.40
1.46 1.59 1.79 2.13 2.53 1.80 1.28 0.85 0.70 0.61 0.65 0.87 1.35 1.37 0.47 0.26 1.18 1.92 1.23 0.27 0.02 0.00 0.01 0.02 0.02 0.05 0.06 0.07 0.14 0.37 0.44 0.40 0.09 0.05 0.06 0.13 0.28 0.17 0.18 0.26 0.06 0.04 0.07 0.10 0.20 0.21 0.38
1.30 1.37 1.33 1.42 1.72 2.12 2.19 1.34 0.88 0.78 0.86 1.60 2.28 1.69 0.60 0.58 1.62 1.27 0.40 0.11 0.06 0.01 0.01 0.05 0.03 0.04 0.17 0.21 0.11 0.11 0.22 0.34 0.23 0.25 0.10 0.09 0.18 0.16 0.04 0.10 0.04 0.05 0.08 0.10 0.29 0.26 0.32
1.18 1.30 1.14 1.14 1.29 1.52 1.89 2.13 1.24 1.04 1.29 1.94 2.64 1.75 1.33 1.02 1.00 0.32 0.16 0.15 0.10 0.07 0.03 0.04 0.07 0.06 0.10 0.15 0.12 0.17 0.15 0.13 0.17 0.19 0.25 0.15 0.32 0.51 0.34 0.16 0.10 0.12 0.06 0.13 0.26 0.22 0.37
1.16 1.19 1.04 1.06 1.16 1.30 1.38 1.74 2.04 1.73 1.55 2.12 3.01 2.37 2.41 1.69 0.62 0.22 0.22 0.25 0.19 0.08 0.07 0.04 0.03 0.03 0.05 0.05 0.05 0.13 0.18 0.16 0.06 0.10 0.14 0.16 0.21 0.48 0.77 0.61 0.49 0.25 0.07 0.05 0.10 0.21 0.42
1.18 1.06 0.97 0.99 1.12 1.29 1.35 1.46 1.85 1.96 1.90 3.52 4.03 1.47 0.74 1.07 0.51 0.15 0.20 0.24 0.22 0.19 0.08 0.07 0.10 0.07 0.05 0.07 0.05 0.06 0.14 0.17 0.13 0.12 0.21 0.26 0.21 0.16 0.12 0.17 0.64 0.49 0.18 0.14 0.19 0.12 0.22
1.16 0.98 0.91 0.98 1.10 1.31 1.51 1.56 1.72 2.06 2.55 4.86 4.11 0.82 0.22 0.11 0.15 0.34 0.23 0.12 0.15 0.13 0.18 0.14 0.13 0.11 0.08 0.10 0.12 0.11 0.11 0.22 0.17 0.15 0.23 0.38 0.37 0.13 0.06 0.08 0.40 0.41 0.15 0.11 0.13 0.15 0.25
0.95 0.93 0.82 0.87 0.92 1.02 1.24 1.51 1.69 2.33 4.13 6.24 3.17 0.44 0.35 0.28 0.20 0.35 0.28 0.12 0.10 0.07 0.06 0.08 0.08 0.10 0.14 0.09 0.12 0.10 0.09 0.10 0.11 0.11 0.21 0.31 0.46 0.39 0.22 0.12 0.41 0.78 0.74 0.50 0.36 0.44 0.31
0.70 0.75 0.78 0.67 0.78 0.73 0.82 0.96 1.29 2.14 4.37 4.56 2.19 0.41 0.79 0.63 0.24 0.15 0.05 0.06 0.06 0.05 0.07 0.04 0.09 0.12 0.07 0.11 0.10 0.10 0.10 0.07 0.06 0.07 0.09 0.26 0.35 0.39 0.26 0.31 0.79 0.92 0.65 0.68 0.89 0.67 0.77
0.69 0.68 0.77 0.65 0.70 0.73 0.71 0.72 0.96 1.29 3.01 4.09 2.46 0.74 0.71 0.60 0.16 0.12 0.11 0.12 0.11 0.09 0.09 0.08 0.08 0.17 0.19 0.28 0.29 0.25 0.24 0.24 0.16 0.09 0.10 0.10 0.24 0.55 0.46 0.47 0.57 0.40 0.25 0.28 0.44 0.39 0.30
0.68 0.71 0.81 0.74 0.66 0.69 0.68 0.66 0.72 0.80 1.62 3.44 3.56 1.70 1.41 0.83 0.28 0.08 0.09 0.09 0.16 0.28 0.24 0.14 0.23 0.21 0.32 0.48 0.60 0.41 0.30 0.30 0.31 0.38 0.13 0.15 0.18 0.41 0.36 0.35 0.31 0.44 0.29 0.10 0.26 0.62 0.35
0.64 0.75 0.81 0.80 0.71 0.67 0.71 0.62 0.51 0.65 1.14 2.10 2.71 2.02 3.02 1.89 0.29 0.16 0.17 0.12 0.11 0.39 0.52 0.36 0.43 0.48 0.48 0.51 0.46 0.33 0.26 0.18 0.26 0.60 0.52 0.23 0.31 0.39 0.27 0.37 0.28 0.11 0.17 0.20 0.83 0.98 0.50
0.67 0.79 0.75 0.71 0.64 0.66 0.75 0.63 0.50 0.64 1.17 1.89 1.82 1.24 3.18 1.94 0.44 0.30 0.21 0.09 0.09 0.42 0.73 0.49 0.64 0.68 0.73 0.58 0.40 0.31 0.24 0.18 0.21 0.46 0.78 0.61 0.44 0.47 0.50 0.50 0.36 0.09 0.19 0.67 1.28 0.67 0.67
0.68 0.82 0.76 0.70 0.56 0.54 0.68 0.65 0.64 0.77 1.35 1.66 1.56 1.20 2.24 2.40 0.95 0.43 0.33 0.12 0.08 0.16 0.48 0.61 0.52 0.40 0.32 0.52 0.44 0.29 0.22 0.21 0.19 0.43 0.71 0.79 0.42 0.56 0.40 0.45 0.31 0.20 0.27 0.23 0.16 0.15 0.11

GFSGBSN_prec_precacc_138.txt.gz
Total_Precipitation_Accumulation
0.20 0.18 0.23 0.26 0.26 0.20 0.14 0.11 0.10 0.07 0.04 0.03 0.02 0.02 0.02 0.02 0.02 0.02 0.02 0.01 0.00 0.01 0.01 0.00 0.01 0.02 0.01 0.00 0.00 0.00 0.00 0.00 0.00 0.00 0.00 0.00 0.00 0.00 0.00 0.00 0.00 0.00 0.00 0.00 0.00 0.00 0.00
0.19 0.18 0.16 0.19 0.18 0.16 0.16 0.17 0.18 0.17 0.14 0.11 0.08 0.06 0.02 0.01 0.02 0.02 0.01 0.00 0.01 0.01 0.01 0.01 0.01 0.03 0.01 0.00 0.00 0.00 0.00 0.00 0.00 0.00 0.00 0.00 0.00 0.00 0.00 0.00 0.00 0.00 0.00 0.00 0.00 0.00 0.00
0.29 0.23 0.19 0.18 0.16 0.16 0.16 0.13 0.15 0.14 0.15 0.14 0.13 0.12 0.12 0.05 0.01 0.01 0.01 0.01 0.00 0.01 0.01 0.01 0.02 0.04 0.01 0.00 0.00 0.00 0.00 0.00 0.00 0.00 0.00 0.00 0.00 0.00 0.00 0.00 0.00 0.00 0.00 0.00 0.00 0.00 0.00
0.28 0.23 0.23 0.24 0.21 0.17 0.13 0.11 0.11 0.12 0.11 0.10 0.09 0.08 0.06 0.03 0.01 0.00 0.01 0.00 0.00 0.01 0.01 0.01 0.02 0.03 0.00 0.00 0.00 0.00 0.00 0.00 0.00 0.00 0.00 0.00 0.00 0.00 0.00 0.00 0.00 0.00 0.00 0.00 0.00 0.00 0.00
0.33 0.28 0.23 0.20 0.19 0.16 0.16 0.15 0.12 0.10 0.10 0.11 0.11 0.11 0.09 0.06 0.05 0.02 0.02 0.00 0.00 0.01 0.01 0.01 0.01 0.02 0.00 0.00 0.00 0.00 0.00 0.00 0.00 0.00 0.00 0.00 0.00 0.00 0.00 0.00 0.00 0.00 0.00 0.00 0.00 0.00 0.00
0.32 0.29 0.24 0.21 0.22 0.23 0.23 0.20 0.16 0.14 0.13 0.12 0.09 0.10 0.11 0.09 0.04 0.03 0.02 0.00 0.00 0.00 0.00 0.00 0.02 0.01 0.00 0.00 0.00 0.00 0.00 0.01 0.02 0.00 0.00 0.00 0.00 0.00 0.00 0.00 0.00 0.00 0.00 0.00 0.00 0.00 0.00
0.44 0.37 0.31 0.25 0.21 0.20 0.20 0.22 0.24 0.21 0.18 0.16 0.12 0.10 0.11 0.11 0.08 0.07 0.03 0.00 0.00 0.01 0.01 0.01 0.01 0.01 0.00 0.00 0.00 0.00 0.00 0.00 0.01 0.01 0.01 0.03 0.00 0.00 0.01 0.00 0.00 0.00 0.00 0.00 0.00 0.00 0.00
0.45 0.42 0.37 0.33 0.30 0.31 0.31 0.32 0.27 0.21 0.18 0.16 0.14 0.12 0.10 0.08 0.08 0.07 0.02 0.02 0.01 0.08 0.11 0.00 0.00 0.00 0.00 0.00 0.00 0.00 0.00 0.01 0.02 0.04 0.05 0.04 0.04 0.00 0.00 0.00 0.00 0.02 0.02 0.00 0.00 0.00 0.00
0.55 0.49 0.42 0.36 0.33 0.30 0.29 0.29 0.28 0.29 0.25 0.18 0.14 0.14 0.14 0.11 0.10 0.04 0.01 0.01 0.00 0.07 0.19 0.02 0.00 0.00 0.00 0.01 0.00 0.00 0.00 0.00 0.05 0.11 0.06 0.09 0.03 0.00 0.00 0.00 0.01 0.01 0.01 0.00 0.00 0.00 0.02
0.65 0.61 0.52 0.45 0.37 0.34 0.32 0.32 0.28 0.24 0.24 0.22 0.20 0.18 0.17 0.20 0.11 0.04 0.03 0.01 0.03 0.21 0.40 0.03 0.02 0.03 0.04 0.07 0.01 0.00 0.00 0.00 0.07 0.09 0.09 0.21 0.04 0.02 0.03 0.02 0.01 0.06 0.00 0.00 0.02 0.08 0.10
0.69 0.61 0.52 0.47 0.44 0.41 0.37 0.31 0.27 0.26 0.27 0.31 0.28 0.22 0.22 0.26 0.15 0.10 0.04 0.01 0.13 0.36 0.45 0.05 0.11 0.05 0.07 0.05 0.01 0.06 0.00 0.00 0.02 0.07 0.20 0.33 0.21 0.24 0.22 0.05 0.02 0.07 0.00 0.01 0.01 0.02 0.08
0.72 0.61 0.52 0.45 0.44 0.42 0.39 0.35 0.29 0.28 0.25 0.25 0.31 0.27 0.32 0.28 0.14 0.03 0.01 0.09 0.30 0.72 0.31 0.03 0.14 0.10 0.14 0.09 0.01 0.02 0.01 0.00 0.00 0.05 0.06 0.10 0.03 0.06 0.05 0.00 0.01 0.02 0.02 0.03 0.05 0.09 0.22
1.13 0.90 0.76 0.61 0.56 0.51 0.44 0.39 0.33 0.30 0.26 0.26 0.29 0.29 0.33 0.17 0.15 0.11 0.18 0.50 0.82 0.46 0.04 0.03 0.08 0.25 0.16 0.20 0.22 0.05 0.02 0.00 0.00 0.03 0.07 0.07 0.06 0.05 0.03 0.12 0.05 0.05 0.04 0.14 0.31 0.24 0.12
2.15 1.40 1.07 0.86 0.62 0.54 0.47 0.45 0.39 0.33 0.30 0.36 0.36 0.32 0.28 0.17 0.10 0.15 0.41 1.05 0.76 0.25 0.02 0.00 0.11 0.23 0.24 0.17 0.24 0.05 0.02 0.02 0.02 0.02 0.04 0.05 0.19 0.07 0.05 0.27 0.12 0.05 0.05 0.10 0.36 0.22 0.19
2.93 2.73 2.00 1.35 1.02 0.77 0.61 0.52 0.51 0.48 0.49 0.48 0.65 0.48 0.38 0.15 0.12 0.36 0.91 0.92 0.33 0.19 0.01 0.00 0.01 0.10 0.11 0.11 0.45 0.54 0.44 0.13 0.10 0.06 0.20 0.14 0.18 0.08 0.04 0.05 0.07 0.08 0.08 0.05 0.20 0.23 0.31
2.08 2.35 2.66 2.73 1.57 1.08 0.86 0.67 0.53 0.63 0.71 0.68 0.70 0.72 0.42 0.15 0.41 0.92 1.34 0.60 0.06 0.03 0.01 0.00 0.00 0.02 0.12 0.08 0.23 0.85 0.41 0.17 0.04 0.02 0.10 0.19 0.23 0.09 0.12 0.08 0.05 0.04 0.04 0.10 0.22 0.49 0.40
1.46 1.59 1.79 2.13 2.53 1.80 1.29 0.88 0.73 0.71 0.77 0.94 1.38 1.45 0.57 0.29 1.20 1.98 1.29 0.28 0.03 0.00 0.01 0.02 0.03 0.05 0.06 0.07 0.14 0.37 0.44 0.40 0.09 0.05 0.06 0.13 0.28 0.17 0.18 0.26 0.06 0.04 0.07 0.10 0.20 0.21 0.38
1.30 1.37 1.33 1.43 1.72 2.13 2.35 1.47 0.98 0.93 0.99 1.67 2.30 1.74 0.71 0.63 1.75 1.38 0.44 0.12 0.06 0.01 0.01 0.05 0.03 0.04 0.17 0.21 0.11 0.11 0.22 0.34 0.23 0.25 0.10 0.09 0.18 0.16 0.04 0.10 0.04 0.05 0.08 0.10 0.30 0.27 0.36
1.18 1.30 1.14 1.16 1.29 1.54 2.17 3.08 2.01 1.32 1.42 2.02 2.72 1.88 1.46 1.09 1.07 0.37 0.17 0.17 0.11 0.07 0.03 0.05 0.07 0.06 0.10 0.15 0.12 0.17 0.15 0.13 0.17 0.19 0.25 0.15 0.32 0.51 0.34 0.17 0.10 0.12 0.06 0.13 0.26 0.22 0.38
1.16 1.19 1.04 1.07 1.18 1.32 1.51 2.28 2.82 2.25 1.91 2.19 3.04 2.55 2.71 1.91 0.70 0.24 0.23 0.27 0.20 0.08 0.07 0.04 0.03 0.03 0.05 0.05 0.05 0.13 0.18 0.16 0.06 0.10 0.14 0.16 0.21 0.48 0.77 0.61 0.49 0.25 0.07 0.05 0.10 0.23 0.48
1.18 1.06 0.97 0.99 1.13 1.32 1.41 1.69 2.30 2.20 2.15 3.76 4.09 1.50 0.82 1.17 0.57 0.16 0.22 0.26 0.22 0.19 0.08 0.07 0.10 0.07 0.05 0.07 0.05 0.06 0.14 0.17 0.13 0.12 0.21 0.26 0.21 0.16 0.12 0.17 0.64 0.49 0.18 0.14 0.19 0.12 0.24
1.16 0.98 0.91 0.99 1.10 1.34 1.59 1.67 2.05 2.45 2.87 5.13 4.22 0.84 0.22 0.12 0.15 0.34 0.25 0.13 0.16 0.13 0.18 0.14 0.13 0.11 0.08 0.10 0.12 0.11 0.11 0.22 0.17 0.15 0.23 0.38 0.37 0.13 0.06 0.08 0.40 0.41 0.15 0.11 0.13 0.16 0.26
0.95 0.93 0.82 0.88 0.92 1.03 1.32 1.62 1.81 2.57 4.40 6.57 3.28 0.45 0.36 0.29 0.22 0.36 0.29 0.12 0.10 0.07 0.07 0.08 0.08 0.10 0.14 0.09 0.12 0.10 0.09 0.10 0.11 0.11 0.21 0.31 0.46 0.39 0.23 0.13 0.41 0.78 0.74 0.50 0.36 0.44 0.31
0.70 0.75 0.78 0.67 0.78 0.75 0.88 1.04 1.39 2.23 4.47 4.75 2.40 0.46 0.83 0.66 0.26 0.17 0.06 0.06 0.06 0.05 0.08 0.04 0.09 0.12 0.07 0.11 0.10 0.10 0.10 0.07 0.06 0.07 0.09 0.26 0.35 0.39 0.27 0.31 0.80 0.92 0.65 0.68 0.89 0.67 0.77
0.69 0.68 0.78 0.66 0.70 0.75 0.74 0.75 1.06 1.33 3.05 4.14 2.54 0.81 0.73 0.63 0.19 0.13 0.11 0.12 0.11 0.09 0.09 0.08 0.08 0.17 0.19 0.28 0.29 0.25 0.24 0.24 0.16 0.09 0.10 0.10 0.24 0.55 0.46 0.49 0.57 0.40 0.25 0.28 0.45 0.40 0.30
0.69 0.71 0.81 0.76 0.67 0.70 0.68 0.68 0.79 0.81 1.62 3.46 3.59 1.71 1.46 0.84 0.31 0.08 0.09 0.09 0.16 0.28 0.25 0.15 0.23 0.21 0.32 0.48 0.60 0.41 0.30 0.30 0.31 0.38 0.13 0.15 0.19 0.41 0.36 0.36 0.34 0.45 0.29 0.10 0.26 0.63 0.35
0.65 0.76 0.82 0.81 0.71 0.67 0.71 0.65 0.53 0.65 1.14 2.11 2.72 2.06 3.09 1.91 0.29 0.16 0.17 0.12 0.11 0.39 0.53 0.36 0.43 0.48 0.48 0.51 0.46 0.33 0.26 0.18 0.26 0.61 0.52 0.23 0.31 0.39 0.27 0.38 0.29 0.11 0.17 0.20 0.83 0.99 0.50
0.67 0.79 0.76 0.72 0.64 0.66 0.76 0.64 0.50 0.64 1.17 1.89 1.83 1.27 3.22 1.97 0.45 0.30 0.21 0.09 0.09 0.42 0.73 0.49 0.64 0.68 0.73 0.58 0.40 0.31 0.24 0.18 0.21 0.46 0.78 0.61 0.44 0.47 0.51 0.50 0.37 0.09 0.19 0.67 1.29 0.67 0.67
0.68 0.82 0.77 0.70 0.56 0.54 0.68 0.66 0.64 0.77 1.35 1.66 1.57 1.21 2.24 2.41 0.95 0.43 0.33 0.13 0.08 0.16 0.48 0.61 0.52 0.40 0.32 0.52 0.45 0.30 0.22 0.21 0.20 0.43 0.71 0.79 0.43 0.57 0.40 0.46 0.31 0.20 0.27 0.23 0.16 0.15 0.11

GFSGBSN_prec_precacc_141.txt.gz
Total_Precipitation_Accumulation
0.20 0.18 0.23 0.26 0.27 0.21 0.16 0.13 0.10 0.09 0.07 0.04 0.05 0.04 0.03 0.03 0.02 0.02 0.02 0.01 0.00 0.01 0.01 0.00 0.01 0.02 0.01 0.00 0.00 0.00 0.00 0.00 0.00 0.00 0.00 0.00 0.00 0.00 0.00 0.00 0.00 0.00 0.00 0.00 0.00 0.00 0.00
0.19 0.18 0.16 0.19 0.18 0.16 0.16 0.18 0.19 0.17 0.15 0.12 0.09 0.08 0.06 0.04 0.03 0.02 0.01 0.00 0.01 0.01 0.01 0.01 0.01 0.03 0.01 0.00 0.00 0.00 0.00 0.00 0.00 0.00 0.00 0.00 0.00 0.00 0.00 0.00 0.00 0.00 0.00 0.00 0.00 0.00 0.00
0.29 0.23 0.19 0.18 0.16 0.16 0.16 0.13 0.15 0.15 0.16 0.15 0.14 0.13 0.14 0.12 0.09 0.07 0.03 0.01 0.00 0.01 0.01 0.01 0.02 0.04 0.01 0.00 0.00 0.00 0.00 0.00 0.00 0.00 0.00 0.00 0.00 0.00 0.00 0.00 0.00 0.00 0.00 0.00 0.00 0.00 0.00
0.28 0.23 0.23 0.24 0.21 0.17 0.13 0.11 0.11 0.12 0.11 0.11 0.09 0.08 0.06 0.05 0.04 0.03 0.02 0.00 0.00 0.01 0.01 0.01 0.02 0.03 0.00 0.00 0.00 0.00 0.00 0.00 0.00 0.00 0.00 0.00 0.00 0.00 0.00 0.00 0.00 0.00 0.00 0.00 0.00 0.00 0.00
0.33 0.28 0.23 0.20 0.19 0.16 0.16 0.15 0.12 0.10 0.10 0.11 0.12 0.11 0.10 0.09 0.08 0.06 0.05 0.01 0.00 0.01 0.01 0.01 0.01 0.02 0.00 0.00 0.00 0.00 0.00 0.00 0.00 0.00 0.00 0.00 0.00 0.00 0.00 0.00 0.00 0.00 0.00 0.00 0.00 0.00 0.00
0.32 0.29 0.24 0.21 0.22 0.23 0.23 0.21 0.16 0.14 0.13 0.12 0.09 0.11 0.12 0.12 0.10 0.08 0.07 0.05 0.01 0.00 0.00 0.00 0.02 0.01 0.00 0.00 0.00 0.00 0.00 0.01 0.02 0.00 0.00 0.00 0.00 0.00 0.00 0.00 0.00 0.00 0.00 0.00 0.00 0.00 0.00
0.44 0.37 0.31 0.25 0.21 0.20 0.20 0.22 0.24 0.21 0.18 0.16 0.12 0.10 0.12 0.12 0.13 0.12 0.07 0.05 0.06 0.09 0.04 0.01 0.01 0.01 0.00 0.00 0.00 0.00 0.00 0.00 0.01 0.01 0.01 0.03 0.00 0.00 0.01 0.00 0.00 0.00 0.00 0.00 0.00 0.00 0.00
0.45 0.42 0.38 0.33 0.30 0.31 0.31 0.32 0.27 0.21 0.18 0.16 0.14 0.13 0.12 0.10 0.11 0.11 0.03 0.04 0.03 0.10 0.15 0.00 0.00 0.00 0.00 0.00 0.00 0.00 0.00 0.01 0.02 0.04 0.05 0.04 0.04 0.00 0.00 0.00 0.00 0.02 0.02 0.00 0.00 0.00 0.00
0.55 0.49 0.43 0.36 0.33 0.30 0.29 0.30 0.28 0.29 0.25 0.18 0.14 0.15 0.16 0.13 0.13 0.06 0.01 0.01 0.01 0.07 0.21 0.02 0.00 0.00 0.00 0.01 0.00 0.00 0.00 0.00 0.05 0.11 0.06 0.09 0.03 0.00 0.00 0.00 0.01 0.01 0.01 0.00 0.00 0.00 0.02
0.65 0.61 0.52 0.45 0.37 0.34 0.32 0.32 0.28 0.24 0.24 0.22 0.20 0.19 0.20 0.25 0.12 0.04 0.03 0.01 0.03 0.21 0.42 0.04 0.02 0.03 0.04 0.07 0.01 0.00 0.00 0.00 0.07 0.09 0.09 0.21 0.04 0.02 0.03 0.02 0.01 0.06 0.00 0.00 0.02 0.08 0.10
0.69 0.61 0.52 0.47 0.44 0.41 0.37 0.31 0.27 0.26 0.27 0.31 0.28 0.23 0.26 0.27 0.15 0.10 0.04 0.01 0.13 0.36 0.48 0.05 0.11 0.05 0.07 0.05 0.01 0.06 0.00 0.00 0.02 0.07 0.20 0.33 0.21 0.24 0.22 0.05 0.02 0.07 0.00 0.01 0.01 0.02 0.08
0.72 0.61 0.52 0.45 0.44 0.42 0.39 0.35 0.30 0.28 0.25 0.25 0.31 0.28 0.35 0.29 0.14 0.03 0.01 0.09 0.30 0.76 0.34 0.03 0.14 0.10 0.14 0.09 0.01 0.02 0.01 0.00 0.00 0.05 0.06 0.10 0.03 0.06 0.05 0.00 0.01 0.02 0.02 0.03 0.05 0.09 0.22
1.13 0.90 0.76 0.61 0.56 0.51 0.44 0.39 0.33 0.30 0.26 0.26 0.29 0.30 0.35 0.17 0.15 0.11 0.18 0.50 0.88 0.57 0.05 0.03 0.08 0.25 0.16 0.20 0.22 0.05 0.02 0.00 0.00 0.03 0.07 0.07 0.06 0.05 0.03 0.12 0.05 0.05 0.04 0.14 0.31 0.24 0.12
2.15 1.40 1.07 0.86 0.62 0.54 0.47 0.45 0.39 0.34 0.30 0.36 0.36 0.33 0.31 0.18 0.10 0.15 0.41 1.08 0.85 0.27 0.02 0.00 0.11 0.23 0.24 0.17 0.24 0.05 0.02 0.02 0.02 0.02 0.04 0.05 0.19 0.07 0.05 0.27 0.12 0.05 0.05 0.10 0.36 0.22 0.19
2.93 2.73 2.00 1.35 1.02 0.77 0.61 0.52 0.51 0.48 0.49 0.48 0.66 0.51 0.43 0.17 0.12 0.36 0.92 0.99 0.37 0.19 0.01 0.00 0.01 0.10 0.11 0.11 0.45 0.54 0.44 0.13 0.10 0.06 0.20 0.14 0.18 0.08 0.04 0.05 0.07 0.08 0.08 0.05 0.20 0.23 0.31
2.08 2.35 2.66 2.73 1.57 1.08 0.86 0.67 0.53 0.63 0.71 0.68 0.71 0.78 0.49 0.16 0.42 0.94 1.40 0.64 0.07 0.03 0.01 0.01 0.01 0.02 0.12 0.08 0.23 0.85 0.41 0.17 0.04 0.02 0.10 0.19 0.23 0.09 0.12 0.08 0.05 0.04 0.04 0.10 0.22 0.49 0.40
1.46 1.59 1.79 2.13 2.53 1.81 1.29 0.88 0.73 0.71 0.78 0.98 1.45 1.56 0.64 0.32 1.23 2.07 1.38 0.31 0.03 0.00 0.02 0.04 0.04 0.06 0.06 0.07 0.14 0.37 0.44 0.40 0.09 0.05 0.06 0.13 0.28 0.17 0.18 0.26 0.06 0.04 0.07 0.10 0.20 0.21 0.38
1.30 1.37 1.33 1.43 1.72 2.15 2.35 1.48 1.00 1.00 1.13 1.79 2.35 1.78 0.81 0.70 1.88 1.51 0.50 0.12 0.06 0.02 0.02 0.06 0.04 0.05 0.17 0.21 0.11 0.11 0.22 0.34 0.23 0.25 0.10 0.09 0.18 0.16 0.04 0.10 0.04 0.05 0.08 0.10 0.30 0.27 0.37
1.18 1.30 1.14 1.16 1.30 1.55 2.17 3.10 2.31 1.84 1.90 2.27 2.92 1.98 1.66 1.12 1.13 0.43 0.18 0.17 0.11 0.07 0.03 0.05 0.07 0.06 0.10 0.15 0.12 0.17 0.15 0.13 0.17 0.19 0.25 0.15 0.32 0.51 0.34 0.17 0.10 0.12 0.06 0.13 0.26 0.22 0.39
1.16 1.19 1.04 1.07 1.18 1.32 1.52 2.30 3.00 2.61 2.29 2.48 3.28 2.85 3.09 2.14 0.78 0.24 0.24 0.28 0.20 0.08 0.07 0.04 0.03 0.04 0.05 0.05 0.05 0.13 0.19 0.16 0.06 0.10 0.14 0.16 0.21 0.48 0.77 0.61 0.49 0.25 0.07 0.05 0.10 0.23 0.48
1.18 1.06 0.97 0.99 1.14 1.32 1.44 1.71 2.44 2.40 2.38 4.00 4.30 1.61 0.93 1.32 0.71 0.18 0.22 0.27 0.23 0.19 0.08 0.07 0.10 0.07 0.05 0.08 0.06 0.07 0.15 0.17 0.13 0.12 0.21 0.26 0.21 0.16 0.12 0.17 0.64 0.49 0.18 0.14 0.19 0.12 0.24
1.16 0.98 0.91 0.99 1.10 1.34 1.64 1.71 2.16 2.67 3.07 5.31 4.35 0.86 0.23 0.12 0.17 0.36 0.25 0.14 0.16 0.13 0.18 0.14 0.13 0.11 0.08 0.11 0.12 0.11 0.11 0.22 0.17 0.15 0.23 0.38 0.37 0.13 0.06 0.08 0.40 0.41 0.15 0.11 0.13 0.16 0.26
0.95 0.93 0.82 0.88 0.92 1.04 1.35 1.67 1.90 2.78 4.58 6.78 3.38 0.46 0.36 0.29 0.22 0.37 0.30 0.12 0.11 0.07 0.07 0.08 0.08 0.10 0.15 0.09 0.12 0.10 0.09 0.10 0.11 0.11 0.21 0.31 0.46 0.39 0.23 0.13 0.41 0.78 0.74 0.50 0.36 0.44 0.31
0.70 0.76 0.78 0.68 0.78 0.75 0.88 1.08 1.46 2.32 4.59 4.91 2.56 0.54 0.85 0.68 0.27 0.18 0.06 0.06 0.06 0.05 0.08 0.04 0.09 0.12 0.07 0.11 0.10 0.10 0.10 0.07 0.06 0.07 0.09 0.26 0.35 0.39 0.29 0.31 0.80 0.92 0.65 0.68 0.89 0.67 0.77
0.69 0.68 0.78 0.66 0.71 0.75 0.74 0.79 1.12 1.38 3.10 4.23 2.64 0.96 0.81 0.67 0.22 0.16 0.14 0.14 0.13 0.10 0.09 0.08 0.08 0.17 0.19 0.28 0.29 0.25 0.24 0.24 0.16 0.09 0.10 0.10 0.24 0.55 0.49 0.49 0.57 0.40 0.25 0.28 0.45 0.40 0.30
0.69 0.71 0.82 0.76 0.67 0.70 0.69 0.72 0.83 0.84 1.64 3.50 3.63 1.76 1.53 0.94 0.38 0.10 0.10 0.11 0.17 0.29 0.26 0.15 0.23 0.21 0.32 0.48 0.60 0.41 0.30 0.30 0.31 0.38 0.13 0.15 0.19 0.41 0.36 0.36 0.34 0.45 0.29 0.10 0.26 0.64 0.35
0.65 0.76 0.83 0.83 0.73 0.67 0.72 0.67 0.55 0.67 1.16 2.14 2.76 2.10 3.14 1.98 0.32 0.18 0.20 0.14 0.11 0.40 0.55 0.36 0.43 0.48 0.48 0.51 0.46 0.33 0.26 0.18 0.26 0.61 0.52 0.23 0.31 0.39 0.27 0.38 0.29 0.11 0.17 0.20 0.83 0.99 0.50
0.68 0.80 0.77 0.73 0.64 0.66 0.77 0.66 0.52 0.67 1.20 1.92 1.95 1.40 3.29 2.01 0.48 0.30 0.21 0.10 0.09 0.42 0.74 0.49 0.64 0.68 0.73 0.58 0.40 0.32 0.25 0.18 0.22 0.46 0.78 0.61 0.44 0.47 0.51 0.51 0.38 0.09 0.19 0.67 1.29 0.67 0.67
0.68 0.83 0.78 0.70 0.56 0.55 0.70 0.66 0.66 0.80 1.37 1.67 1.72 1.33 2.31 2.42 0.98 0.44 0.34 0.13 0.08 0.16 0.48 0.61 0.52 0.40 0.32 0.52 0.45 0.31 0.24 0.22 0.20 0.43 0.71 0.79 0.43 0.57 0.40 0.46 0.31 0.20 0.27 0.23 0.16 0.15 0.11

GFSGBSN_prec_precacc_144.txt.gz
Total_Precipitation_Accumulation
0.20 0.18 0.23 0.26 0.27 0.21 0.16 0.14 0.11 0.09 0.07 0.05 0.05 0.04 0.04 0.03 0.02 0.02 0.02 0.01 0.00 0.01 0.01 0.00 0.01 0.02 0.01 0.00 0.00 0.00 0.00 0.00 0.00 0.00 0.00 0.00 0.00 0.00 0.00 0.00 0.00 0.00 0.00 0.00 0.00 0.00 0.00
0.19 0.18 0.16 0.19 0.18 0.16 0.16 0.18 0.19 0.18 0.15 0.12 0.09 0.08 0.06 0.05 0.05 0.03 0.01 0.00 0.01 0.01 0.01 0.01 0.01 0.03 0.01 0.00 0.00 0.00 0.00 0.00 0.00 0.00 0.00 0.00 0.00 0.00 0.00 0.00 0.00 0.00 0.00 0.00 0.00 0.00 0.00
0.29 0.23 0.19 0.18 0.16 0.16 0.16 0.13 0.15 0.15 0.16 0.16 0.14 0.13 0.14 0.12 0.10 0.08 0.03 0.01 0.00 0.01 0.01 0.01 0.02 0.04 0.01 0.00 0.00 0.00 0.00 0.00 0.00 0.00 0.00 0.00 0.00 0.00 0.00 0.00 0.00 0.00 0.00 0.00 0.00 0.00 0.00
0.28 0.23 0.23 0.24 0.21 0.17 0.13 0.11 0.11 0.12 0.11 0.11 0.10 0.08 0.07 0.06 0.05 0.04 0.02 0.00 0.00 0.01 0.01 0.01 0.02 0.03 0.00 0.00 0.00 0.00 0.00 0.00 0.00 0.00 0.00 0.00 0.00 0.00 0.00 0.00 0.00 0.00 0.00 0.00 0.00 0.00 0.00
0.33 0.28 0.23 0.20 0.19 0.16 0.16 0.15 0.12 0.10 0.10 0.11 0.12 0.12 0.11 0.10 0.10 0.08 0.06 0.01 0.00 0.01 0.01 0.01 0.01 0.02 0.00 0.00 0.00 0.00 0.00 0.00 0.00 0.00 0.00 0.00 0.00 0.00 0.00 0.00 0.00 0.00 0.00 0.00 0.00 0.00 0.00
0.32 0.29 0.24 0.21 0.22 0.24 0.23 0.21 0.16 0.14 0.13 0.12 0.09 0.12 0.12 0.12 0.12 0.11 0.08 0.05 0.01 0.00 0.00 0.00 0.02 0.01 0.00 0.00 0.00 0.00 0.00 0.01 0.02 0.00 0.00 0.00 0.00 0.00 0.00 0.00 0.00 0.00 0.00 0.00 0.00 0.00 0.00
0.44 0.37 0.31 0.25 0.21 0.20 0.20 0.22 0.24 0.21 0.18 0.16 0.12 0.10 0.12 0.12 0.14 0.14 0.08 0.05 0.06 0.09 0.04 0.01 0.01 0.01 0.00 0.00 0.00 0.00 0.00 0.00 0.01 0.01 0.01 0.03 0.00 0.00 0.01 0.00 0.00 0.00 0.00 0.00 0.00 0.00 0.00
0.45 0.42 0.38 0.33 0.31 0.31 0.31 0.32 0.28 0.21 0.18 0.16 0.14 0.13 0.12 0.10 0.13 0.12 0.04 0.04 0.03 0.11 0.16 0.03 0.01 0.00 0.00 0.00 0.00 0.00 0.00 0.01 0.02 0.04 0.05 0.04 0.04 0.00 0.00 0.00 0.00 0.02 0.02 0.00 0.00 0.00 0.00
0.55 0.49 0.43 0.36 0.33 0.30 0.29 0.30 0.28 0.30 0.25 0.18 0.14 0.15 0.16 0.14 0.14 0.06 0.01 0.01 0.01 0.07 0.22 0.03 0.00 0.00 0.00 0.01 0.00 0.00 0.00 0.00 0.05 0.11 0.06 0.09 0.03 0.00 0.00 0.00 0.01 0.01 0.01 0.00 0.00 0.00 0.02
0.66 0.61 0.52 0.45 0.37 0.34 0.32 0.32 0.28 0.25 0.25 0.22 0.20 0.19 0.22 0.25 0.13 0.04 0.03 0.01 0.03 0.21 0.42 0.04 0.02 0.03 0.04 0.07 0.01 0.00 0.00 0.00 0.07 0.09 0.09 0.21 0.04 0.02 0.03 0.02 0.01 0.06 0.00 0.00 0.02 0.08 0.10
0.69 0.61 0.52 0.47 0.44 0.41 0.37 0.31 0.27 0.26 0.27 0.32 0.29 0.23 0.27 0.27 0.15 0.10 0.04 0.01 0.13 0.37 0.50 0.05 0.11 0.05 0.07 0.05 0.01 0.06 0.00 0.00 0.02 0.07 0.20 0.33 0.21 0.24 0.22 0.05 0.02 0.07 0.00 0.01 0.01 0.02 0.08
0.73 0.61 0.52 0.45 0.44 0.42 0.39 0.35 0.30 0.28 0.26 0.26 0.32 0.29 0.35 0.29 0.14 0.03 0.01 0.09 0.30 0.78 0.36 0.03 0.14 0.10 0.14 0.09 0.01 0.02 0.01 0.00 0.00 0.05 0.06 0.10 0.03 0.06 0.05 0.00 0.01 0.02 0.02 0.03 0.05 0.09 0.22
1.13 0.90 0.76 0.61 0.56 0.51 0.44 0.39 0.33 0.31 0.27 0.27 0.30 0.31 0.36 0.18 0.15 0.11 0.18 0.50 0.89 0.59 0.05 0.03 0.08 0.25 0.16 0.20 0.22 0.05 0.02 0.00 0.00 0.03 0.07 0.07 0.06 0.05 0.03 0.12 0.05 0.05 0.04 0.14 0.31 0.24 0.12
2.15 1.40 1.07 0.86 0.62 0.54 0.47 0.45 0.39 0.34 0.31 0.37 0.37 0.34 0.32 0.19 0.10 0.15 0.41 1.09 0.88 0.27 0.02 0.00 0.11 0.23 0.24 0.17 0.24 0.05 0.02 0.02 0.02 0.02 0.04 0.05 0.19 0.07 0.05 0.27 0.12 0.05 0.05 0.10 0.36 0.22 0.19
2.93 2.73 2.00 1.35 1.02 0.77 0.61 0.52 0.51 0.49 0.49 0.49 0.67 0.52 0.44 0.18 0.13 0.37 0.94 1.03 0.38 0.19 0.01 0.00 0.01 0.10 0.11 0.11 0.45 0.54 0.44 0.13 0.10 0.06 0.20 0.14 0.18 0.08 0.04 0.05 0.07 0.08 0.08 0.05 0.20 0.23 0.31
2.08 2.35 2.66 2.73 1.57 1.08 0.87 0.67 0.53 0.64 0.72 0.69 0.73 0.80 0.50 0.17 0.43 0.96 1.46 0.67 0.07 0.03 0.01 0.01 0.01 0.02 0.12 0.08 0.23 0.85 0.41 0.17 0.04 0.02 0.10 0.19 0.23 0.09 0.12 0.08 0.05 0.04 0.04 0.10 0.22 0.49 0.40
1.47 1.60 1.79 2.13 2.53 1.81 1.29 0.89 0.73 0.71 0.78 0.99 1.47 1.59 0.64 0.33 1.28 2.17 1.47 0.34 0.03 0.00 0.02 0.04 0.05 0.07 0.06 0.07 0.14 0.37 0.44 0.40 0.09 0.05 0.06 0.13 0.28 0.17 0.18 0.26 0.06 0.04 0.07 0.10 0.20 0.21 0.38
1.31 1.37 1.33 1.43 1.72 2.15 2.35 1.48 1.00 1.00 1.15 1.81 2.37 1.80 0.81 0.72 1.99 1.63 0.55 0.12 0.06 0.02 0.02 0.06 0.05 0.08 0.19 0.21 0.11 0.11 0.22 0.34 0.23 0.25 0.10 0.09 0.18 0.16 0.04 0.10 0.04 0.05 0.08 0.10 0.30 0.27 0.37
1.19 1.31 1.14 1.16 1.30 1.55 2.17 3.10 2.31 1.85 1.99 2.31 2.95 2.01 1.78 1.13 1.15 0.47 0.19 0.17 0.11 0.07 0.03 0.06 0.08 0.06 0.13 0.16 0.13 0.17 0.15 0.13 0.17 0.19 0.25 0.15 0.32 0.52 0.34 0.17 0.10 0.12 0.06 0.13 0.26 0.22 0.39
1.17 1.20 1.04 1.07 1.18 1.32 1.52 2.30 3.00 2.61 2.31 2.53 3.33 2.97 3.43 2.39 0.80 0.24 0.25 0.29 0.20 0.08 0.07 0.04 0.04 0.05 0.05 0.06 0.05 0.14 0.19 0.16 0.06 0.10 0.14 0.16 0.21 0.48 0.77 0.61 0.49 0.25 0.07 0.05 0.10 0.23 0.48
1.19 1.06 0.97 0.99 1.14 1.32 1.44 1.71 2.45 2.41 2.42 4.09 4.49 1.82 1.07 1.55 0.92 0.23 0.22 0.27 0.23 0.19 0.08 0.08 0.10 0.07 0.05 0.08 0.06 0.07 0.15 0.17 0.13 0.12 0.21 0.26 0.22 0.16 0.12 0.17 0.64 0.49 0.18 0.14 0.19 0.12 0.24
1.17 0.98 0.91 0.99 1.10 1.35 1.68 1.71 2.17 2.69 3.14 5.45 4.58 1.09 0.37 0.18 0.25 0.46 0.28 0.14 0.16 0.13 0.18 0.14 0.13 0.11 0.08 0.11 0.12 0.11 0.11 0.22 0.17 0.15 0.24 0.39 0.37 0.14 0.06 0.08 0.40 0.41 0.15 0.11 0.13 0.16 0.26
0.96 0.93 0.82 0.88 0.92 1.04 1.39 1.69 1.92 2.79 4.63 6.88 3.46 0.49 0.40 0.42 0.34 0.48 0.33 0.13 0.11 0.08 0.07 0.08 0.08 0.11 0.15 0.09 0.12 0.10 0.09 0.10 0.12 0.12 0.21 0.31 0.46 0.39 0.23 0.13 0.41 0.78 0.74 0.50 0.36 0.44 0.31
0.70 0.76 0.78 0.68 0.78 0.75 0.89 1.09 1.48 2.34 4.62 4.97 2.61 0.56 0.88 0.75 0.32 0.21 0.06 0.07 0.08 0.05 0.08 0.04 0.09 0.12 0.07 0.11 0.10 0.10 0.10 0.07 0.06 0.07 0.09 0.26 0.35 0.39 0.29 0.31 0.80 0.92 0.65 0.68 0.89 0.67 0.77
0.70 0.68 0.78 0.66 0.71 0.75 0.75 0.80 1.15 1.41 3.12 4.26 2.66 0.98 0.83 0.68 0.22 0.17 0.14 0.14 0.14 0.11 0.10 0.08 0.08 0.17 0.19 0.28 0.29 0.26 0.25 0.25 0.16 0.09 0.10 0.10 0.24 0.55 0.50 0.51 0.58 0.40 0.25 0.28 0.45 0.40 0.30
0.69 0.71 0.82 0.76 0.68 0.71 0.70 0.73 0.85 0.88 1.69 3.52 3.64 1.77 1.54 0.95 0.39 0.11 0.11 0.11 0.17 0.29 0.26 0.15 0.23 0.21 0.32 0.48 0.60 0.41 0.30 0.31 0.32 0.38 0.13 0.15 0.19 0.41 0.36 0.38 0.35 0.45 0.29 0.10 0.26 0.64 0.35
0.67 0.76 0.83 0.83 0.73 0.67 0.73 0.67 0.56 0.72 1.22 2.16 2.76 2.10 3.15 1.99 0.34 0.21 0.22 0.16 0.12 0.40 0.55 0.36 0.43 0.48 0.48 0.51 0.46 0.33 0.26 0.18 0.26 0.61 0.52 0.24 0.31 0.39 0.27 0.38 0.29 0.11 0.17 0.20 0.83 0.99 0.50
0.72 0.80 0.78 0.73 0.64 0.66 0.77 0.66 0.52 0.69 1.25 1.93 1.95 1.41 3.32 2.03 0.49 0.33 0.23 0.12 0.11 0.42 0.74 0.49 0.65 0.68 0.73 0.59 0.41 0.32 0.25 0.18 0.22 0.46 0.78 0.61 0.44 0.47 0.51 0.51 0.38 0.09 0.19 0.67 1.29 0.67 0.67
0.70 0.83 0.78 0.70 0.56 0.55 0.70 0.67 0.67 0.83 1.39 1.73 1.90 1.44 2.40 2.44 1.01 0.46 0.35 0.14 0.08 0.16 0.48 0.61 0.52 0.40 0.32 0.52 0.45 0.31 0.25 0.23 0.20 0.43 0.71 0.79 0.43 0.57 0.40 0.46 0.31 0.20 0.27 0.23 0.16 0.15 0.11

GFSGBSN_prec_precacc_147.txt.gz
Total_Precipitation_Accumulation
0.20 0.18 0.23 0.26 0.27 0.22 0.17 0.14 0.12 0.10 0.07 0.05 0.05 0.04 0.04 0.03 0.02 0.02 0.02 0.01 0.00 0.01 0.01 0.00 0.01 0.02 0.01 0.00 0.00 0.00 0.00 0.00 0.00 0.00 0.00 0.00 0.00 0.00 0.00 0.00 0.00 0.00 0.00 0.00 0.00 0.00 0.00
0.19 0.18 0.16 0.19 0.18 0.16 0.16 0.18 0.20 0.18 0.15 0.12 0.09 0.08 0.06 0.05 0.05 0.03 0.01 0.00 0.01 0.01 0.01 0.01 0.01 0.03 0.01 0.00 0.00 0.00 0.00 0.00 0.00 0.00 0.00 0.00 0.00 0.00 0.00 0.00 0.00 0.00 0.00 0.00 0.00 0.00 0.00
0.29 0.23 0.19 0.18 0.16 0.16 0.16 0.13 0.15 0.15 0.16 0.16 0.15 0.14 0.14 0.12 0.10 0.08 0.03 0.01 0.00 0.01 0.01 0.01 0.02 0.04 0.01 0.00 0.00 0.00 0.00 0.00 0.00 0.00 0.00 0.00 0.00 0.00 0.00 0.00 0.00 0.00 0.00 0.00 0.00 0.00 0.00
0.28 0.23 0.23 0.24 0.21 0.17 0.13 0.11 0.11 0.12 0.11 0.11 0.10 0.09 0.07 0.06 0.07 0.05 0.02 0.00 0.00 0.01 0.01 0.01 0.02 0.03 0.00 0.00 0.00 0.00 0.00 0.00 0.00 0.00 0.00 0.00 0.00 0.00 0.00 0.00 0.00 0.00 0.00 0.00 0.00 0.00 0.00
0.33 0.28 0.23 0.20 0.19 0.16 0.16 0.15 0.12 0.10 0.10 0.11 0.12 0.12 0.11 0.11 0.14 0.13 0.08 0.02 0.00 0.01 0.01 0.01 0.01 0.02 0.00 0.00 0.00 0.00 0.00 0.00 0.00 0.00 0.00 0.00 0.00 0.00 0.00 0.00 0.00 0.00 0.00 0.00 0.00 0.00 0.00
0.32 0.29 0.24 0.21 0.22 0.24 0.24 0.21 0.17 0.14 0.13 0.12 0.09 0.12 0.12 0.12 0.13 0.14 0.10 0.06 0.02 0.00 0.00 0.00 0.02 0.01 0.00 0.00 0.00 0.00 0.00 0.01 0.02 0.00 0.00 0.00 0.00 0.00 0.00 0.00 0.00 0.00 0.00 0.00 0.00 0.00 0.00
0.44 0.37 0.31 0.25 0.21 0.20 0.20 0.22 0.25 0.22 0.18 0.16 0.12 0.10 0.12 0.13 0.15 0.14 0.08 0.06 0.07 0.09 0.04 0.01 0.01 0.01 0.00 0.00 0.00 0.00 0.00 0.00 0.01 0.01 0.01 0.03 0.00 0.00 0.01 0.00 0.00 0.00 0.00 0.00 0.00 0.00 0.00
0.45 0.42 0.38 0.33 0.31 0.31 0.31 0.32 0.28 0.22 0.19 0.16 0.14 0.13 0.12 0.10 0.14 0.13 0.04 0.05 0.03 0.11 0.16 0.03 0.01 0.00 0.00 0.00 0.00 0.00 0.00 0.01 0.02 0.04 0.05 0.04 0.04 0.00 0.00 0.00 0.00 0.02 0.02 0.00 0.00 0.00 0.00
0.55 0.49 0.43 0.36 0.33 0.30 0.29 0.30 0.28 0.30 0.26 0.18 0.14 0.15 0.16 0.15 0.14 0.07 0.01 0.01 0.01 0.07 0.22 0.03 0.00 0.00 0.00 0.01 0.00 0.00 0.00 0.00 0.05 0.11 0.06 0.09 0.03 0.00 0.00 0.00 0.01 0.01 0.01 0.00 0.00 0.00 0.02
0.66 0.61 0.53 0.45 0.37 0.34 0.32 0.32 0.28 0.25 0.25 0.23 0.20 0.19 0.22 0.26 0.13 0.04 0.03 0.01 0.03 0.21 0.42 0.04 0.02 0.03 0.04 0.07 0.01 0.00 0.00 0.00 0.07 0.09 0.09 0.21 0.04 0.02 0.03 0.02 0.01 0.06 0.00 0.00 0.02 0.08 0.10
0.70 0.61 0.53 0.47 0.44 0.41 0.37 0.31 0.27 0.26 0.28 0.33 0.29 0.24 0.27 0.27 0.15 0.10 0.04 0.01 0.13 0.37 0.50 0.05 0.11 0.05 0.07 0.05 0.01 0.06 0.00 0.00 0.02 0.07 0.20 0.33 0.21 0.24 0.22 0.05 0.02 0.07 0.00 0.01 0.01 0.02 0.08
0.74 0.62 0.52 0.45 0.44 0.42 0.39 0.35 0.30 0.28 0.26 0.26 0.33 0.30 0.35 0.30 0.14 0.03 0.01 0.09 0.30 0.78 0.36 0.03 0.14 0.10 0.14 0.09 0.01 0.02 0.01 0.00 0.00 0.05 0.06 0.10 0.03 0.06 0.05 0.00 0.01 0.02 0.02 0.03 0.05 0.09 0.22
1.14 0.91 0.76 0.61 0.56 0.51 0.44 0.39 0.33 0.31 0.27 0.27 0.31 0.33 0.37 0.18 0.15 0.11 0.18 0.50 0.89 0.59 0.05 0.03 0.08 0.25 0.16 0.20 0.22 0.05 0.02 0.00 0.00 0.03 0.07 0.07 0.06 0.05 0.03 0.12 0.05 0.05 0.04 0.14 0.31 0.24 0.12
2.15 1.41 1.08 0.86 0.62 0.54 0.47 0.45 0.39 0.34 0.31 0.37 0.37 0.35 0.34 0.19 0.10 0.15 0.41 1.09 0.88 0.27 0.02 0.00 0.11 0.23 0.24 0.17 0.24 0.05 0.02 0.02 0.02 0.02 0.04 0.05 0.19 0.07 0.05 0.27 0.12 0.05 0.05 0.10 0.36 0.22 0.19
2.94 2.73 2.01 1.36 1.02 0.77 0.61 0.52 0.51 0.49 0.50 0.49 0.67 0.53 0.46 0.19 0.13 0.37 0.94 1.03 0.38 0.19 0.01 0.00 0.01 0.10 0.11 0.11 0.45 0.54 0.44 0.13 0.10 0.06 0.20 0.14 0.18 0.08 0.04 0.05 0.07 0.08 0.08 0.05 0.20 0.23 0.31
2.11 2.35 2.66 2.74 1.57 1.08 0.87 0.68 0.53 0.64 0.72 0.70 0.73 0.81 0.51 0.18 0.44 0.97 1.49 0.68 0.07 0.03 0.01 0.01 0.01 0.02 0.12 0.08 0.23 0.85 0.41 0.17 0.04 0.02 0.10 0.19 0.23 0.09 0.12 0.08 0.05 0.04 0.04 0.10 0.22 0.49 0.40
1.50 1.62 1.80 2.14 2.53 1.81 1.29 0.89 0.74 0.72 0.79 1.00 1.48 1.60 0.64 0.33 1.31 2.22 1.50 0.34 0.03 0.00 0.02 0.04 0.05 0.07 0.06 0.07 0.14 0.37 0.44 0.40 0.09 0.05 0.06 0.13 0.28 0.17 0.18 0.26 0.06 0.04 0.07 0.10 0.20 0.21 0.38
1.31 1.38 1.34 1.43 1.72 2.15 2.35 1.49 1.01 1.01 1.16 1.87 2.40 1.80 0.81 0.72 2.02 1.67 0.56 0.12 0.06 0.02 0.02 0.06 0.05 0.08 0.19 0.21 0.11 0.11 0.22 0.34 0.23 0.25 0.10 0.09 0.19 0.16 0.04 0.10 0.04 0.05 0.08 0.10 0.30 0.27 0.37
1.20 1.32 1.15 1.16 1.30 1.55 2.17 3.11 2.32 1.85 2.03 2.34 2.96 2.02 1.83 1.14 1.15 0.47 0.19 0.17 0.11 0.07 0.03 0.06 0.08 0.06 0.13 0.18 0.14 0.17 0.15 0.13 0.17 0.19 0.25 0.15 0.33 0.52 0.34 0.17 0.10 0.12 0.06 0.13 0.26 0.22 0.39
1.19 1.22 1.05 1.07 1.18 1.32 1.52 2.30 3.01 2.62 2.34 2.57 3.34 2.99 3.58 2.55 0.81 0.24 0.25 0.29 0.20 0.08 0.07 0.04 0.04 0.05 0.06 0.07 0.06 0.14 0.19 0.16 0.06 0.10 0.14 0.16 0.22 0.48 0.77 0.61 0.50 0.26 0.08 0.05 0.11 0.23 0.48
1.19 1.08 0.98 0.99 1.14 1.33 1.45 1.71 2.45 2.41 2.44 4.14 4.51 1.84 1.10 1.66 1.01 0.24 0.22 0.27 0.23 0.20 0.08 0.08 0.11 0.08 0.06 0.08 0.06 0.07 0.15 0.17 0.13 0.12 0.21 0.26 0.22 0.16 0.12 0.17 0.64 0.49 0.18 0.14 0.19 0.12 0.24
1.18 0.99 0.92 0.99 1.10 1.35 1.69 1.72 2.17 2.69 3.14 5.47 4.65 1.13 0.41 0.21 0.30 0.52 0.31 0.15 0.16 0.13 0.18 0.14 0.13 0.11 0.08 0.11 0.12 0.11 0.11 0.23 0.17 0.15 0.24 0.39 0.37 0.14 0.07 0.08 0.40 0.41 0.15 0.11 0.13 0.16 0.26
0.97 0.94 0.83 0.88 0.92 1.04 1.41 1.71 1.92 2.79 4.64 6.88 3.49 0.54 0.44 0.45 0.43 0.65 0.43 0.15 0.11 0.08 0.08 0.08 0.08 0.11 0.15 0.09 0.13 0.12 0.11 0.11 0.12 0.12 0.22 0.32 0.48 0.43 0.25 0.13 0.41 0.78 0.74 0.50 0.36 0.44 0.31
0.71 0.77 0.79 0.68 0.78 0.75 0.90 1.11 1.49 2.34 4.63 4.98 2.62 0.59 0.91 0.77 0.34 0.26 0.10 0.08 0.08 0.06 0.08 0.04 0.09 0.12 0.07 0.13 0.12 0.11 0.10 0.08 0.06 0.07 0.10 0.28 0.39 0.41 0.30 0.32 0.82 0.93 0.65 0.68 0.89 0.67 0.77
0.71 0.70 0.78 0.66 0.71 0.76 0.75 0.80 1.15 1.41 3.12 4.26 2.69 1.04 0.85 0.68 0.23 0.19 0.16 0.14 0.14 0.11 0.11 0.08 0.08 0.17 0.19 0.29 0.33 0.36 0.32 0.27 0.16 0.10 0.11 0.10 0.24 0.56 0.52 0.52 0.58 0.40 0.25 0.28 0.45 0.40 0.30
0.71 0.73 0.82 0.76 0.68 0.72 0.70 0.73 0.86 0.90 1.70 3.53 3.65 1.80 1.58 0.97 0.39 0.12 0.13 0.11 0.18 0.29 0.28 0.16 0.23 0.21 0.32 0.48 0.63 0.49 0.36 0.32 0.32 0.38 0.13 0.15 0.19 0.42 0.37 0.40 0.36 0.45 0.29 0.10 0.26 0.64 0.35
0.69 0.78 0.84 0.83 0.73 0.68 0.73 0.68 0.57 0.75 1.26 2.19 2.77 2.11 3.19 2.01 0.34 0.21 0.23 0.16 0.12 0.40 0.55 0.36 0.43 0.48 0.48 0.52 0.47 0.35 0.27 0.18 0.26 0.61 0.52 0.24 0.31 0.40 0.28 0.38 0.29 0.11 0.17 0.20 0.83 0.99 0.50
0.75 0.82 0.78 0.73 0.65 0.67 0.78 0.66 0.53 0.72 1.32 1.97 1.96 1.43 3.37 2.05 0.49 0.33 0.23 0.12 0.11 0.42 0.74 0.49 0.66 0.69 0.74 0.61 0.41 0.32 0.25 0.18 0.22 0.46 0.78 0.61 0.44 0.47 0.51 0.51 0.38 0.09 0.19 0.67 1.29 0.67 0.67
0.75 0.85 0.78 0.71 0.57 0.55 0.70 0.67 0.67 0.85 1.45 1.77 1.92 1.46 2.50 2.52 1.02 0.46 0.35 0.14 0.08 0.16 0.48 0.61 0.52 0.40 0.32 0.53 0.46 0.31 0.26 0.23 0.20 0.43 0.71 0.80 0.43 0.57 0.40 0.46 0.31 0.20 0.27 0.23 0.16 0.15 0.11

GFSGBSN_prec_precacc_153.txt.gz
Total_Precipitation_Accumulation
0.32 0.25 0.26 0.29 0.29 0.26 0.25 0.22 0.17 0.13 0.09 0.06 0.06 0.05 0.04 0.03 0.02 0.02 0.02 0.01 0.00 0.01 0.01 0.00 0.01 0.02 0.01 0.00 0.00 0.00 0.00 0.00 0.00 0.00 0.00 0.00 0.00 0.00 0.00 0.00 0.00 0.00 0.00 0.00 0.00 0.00 0.00
0.40 0.34 0.26 0.25 0.20 0.18 0.17 0.21 0.24 0.23 0.19 0.15 0.12 0.10 0.08 0.06 0.05 0.04 0.01 0.00 0.01 0.01 0.01 0.01 0.01 0.03 0.01 0.00 0.00 0.00 0.00 0.00 0.00 0.00 0.00 0.00 0.00 0.00 0.00 0.00 0.00 0.00 0.00 0.00 0.00 0.00 0.00
0.31 0.24 0.20 0.18 0.16 0.16 0.16 0.13 0.15 0.15 0.16 0.17 0.16 0.16 0.16 0.13 0.11 0.09 0.04 0.01 0.00 0.01 0.01 0.01 0.02 0.04 0.01 0.00 0.00 0.00 0.00 0.00 0.00 0.00 0.00 0.00 0.00 0.00 0.00 0.00 0.00 0.00 0.00 0.00 0.00 0.00 0.00
0.31 0.25 0.23 0.24 0.22 0.17 0.13 0.11 0.11 0.12 0.11 0.11 0.10 0.09 0.08 0.07 0.07 0.06 0.04 0.00 0.00 0.01 0.01 0.01 0.02 0.03 0.00 0.00 0.00 0.00 0.00 0.00 0.00 0.00 0.00 0.00 0.00 0.00 0.00 0.00 0.00 0.00 0.00 0.00 0.00 0.00 0.00
0.34 0.29 0.24 0.20 0.19 0.16 0.16 0.15 0.12 0.10 0.10 0.11 0.12 0.12 0.11 0.11 0.15 0.15 0.11 0.02 0.00 0.01 0.01 0.01 0.01 0.02 0.00 0.00 0.00 0.00 0.00 0.00 0.00 0.00 0.00 0.00 0.00 0.00 0.00 0.00 0.00 0.00 0.00 0.00 0.00 0.00 0.00
0.32 0.29 0.24 0.21 0.22 0.24 0.24 0.21 0.17 0.14 0.13 0.12 0.09 0.12 0.12 0.12 0.14 0.16 0.11 0.07 0.02 0.00 0.00 0.00 0.02 0.01 0.00 0.00 0.00 0.00 0.00 0.01 0.02 0.00 0.00 0.00 0.00 0.00 0.00 0.00 0.00 0.00 0.00 0.00 0.00 0.00 0.00
0.45 0.38 0.31 0.26 0.22 0.20 0.20 0.22 0.25 0.22 0.18 0.16 0.12 0.10 0.12 0.13 0.15 0.16 0.09 0.06 0.07 0.09 0.04 0.01 0.01 0.01 0.00 0.00 0.00 0.00 0.00 0.00 0.01 0.01 0.01 0.03 0.00 0.00 0.01 0.00 0.00 0.00 0.00 0.00 0.00 0.00 0.00
0.46 0.43 0.38 0.34 0.31 0.31 0.31 0.32 0.28 0.22 0.19 0.16 0.14 0.13 0.12 0.11 0.14 0.13 0.04 0.05 0.03 0.11 0.16 0.03 0.01 0.00 0.00 0.00 0.00 0.00 0.00 0.01 0.02 0.04 0.05 0.04 0.04 0.00 0.00 0.00 0.00 0.02 0.02 0.00 0.00 0.00 0.00
0.56 0.50 0.43 0.37 0.34 0.31 0.30 0.30 0.28 0.30 0.26 0.18 0.14 0.15 0.16 0.15 0.14 0.07 0.01 0.01 0.01 0.07 0.22 0.03 0.00 0.00 0.00 0.01 0.00 0.00 0.00 0.00 0.05 0.11 0.06 0.09 0.03 0.00 0.00 0.00 0.01 0.01 0.01 0.00 0.00 0.00 0.02
0.67 0.62 0.53 0.45 0.38 0.34 0.32 0.32 0.28 0.25 0.25 0.24 0.20 0.19 0.22 0.26 0.13 0.04 0.03 0.01 0.03 0.21 0.42 0.04 0.02 0.03 0.04 0.07 0.01 0.00 0.00 0.00 0.07 0.09 0.09 0.21 0.04 0.02 0.03 0.02 0.01 0.06 0.00 0.00 0.02 0.08 0.10
0.70 0.62 0.54 0.48 0.44 0.41 0.37 0.31 0.27 0.26 0.28 0.34 0.30 0.24 0.27 0.27 0.15 0.10 0.04 0.01 0.13 0.37 0.50 0.05 0.11 0.05 0.07 0.05 0.01 0.06 0.00 0.00 0.02 0.07 0.20 0.33 0.21 0.24 0.22 0.05 0.02 0.07 0.00 0.01 0.01 0.02 0.08
0.74 0.62 0.53 0.45 0.44 0.42 0.39 0.35 0.30 0.29 0.26 0.28 0.35 0.31 0.36 0.30 0.14 0.03 0.01 0.09 0.30 0.78 0.36 0.03 0.14 0.10 0.14 0.09 0.01 0.02 0.01 0.00 0.00 0.05 0.06 0.10 0.03 0.06 0.05 0.00 0.01 0.02 0.02 0.03 0.05 0.09 0.22
1.15 0.92 0.77 0.62 0.57 0.52 0.44 0.39 0.33 0.31 0.27 0.28 0.33 0.34 0.37 0.18 0.15 0.11 0.18 0.50 0.89 0.59 0.05 0.03 0.08 0.25 0.16 0.20 0.22 0.05 0.02 0.00 0.00 0.03 0.07 0.07 0.06 0.05 0.03 0.12 0.05 0.05 0.04 0.14 0.31 0.24 0.12
2.18 1.42 1.10 0.87 0.63 0.54 0.47 0.45 0.39 0.34 0.31 0.38 0.38 0.37 0.35 0.19 0.10 0.15 0.41 1.09 0.88 0.27 0.02 0.00 0.11 0.23 0.24 0.17 0.24 0.05 0.02 0.02 0.02 0.02 0.04 0.05 0.19 0.07 0.05 0.27 0.12 0.05 0.05 0.10 0.36 0.22 0.19
2.96 2.74 2.02 1.38 1.03 0.78 0.61 0.52 0.51 0.49 0.50 0.49 0.68 0.54 0.47 0.20 0.13 0.37 0.94 1.03 0.38 0.19 0.01 0.00 0.01 0.10 0.11 0.11 0.45 0.54 0.44 0.13 0.10 0.06 0.20 0.14 0.18 0.08 0.04 0.05 0.07 0.08 0.08 0.05 0.20 0.23 0.31
2.15 2.38 2.67 2.77 1.60 1.08 0.87 0.68 0.53 0.64 0.73 0.70 0.73 0.81 0.51 0.18 0.44 0.97 1.49 0.68 0.07 0.03 0.01 0.01 0.01 0.02 0.12 0.08 0.23 0.85 0.41 0.17 0.04 0.02 0.10 0.19 0.23 0.09 0.12 0.08 0.05 0.04 0.04 0.10 0.23 0.50 0.40
1.54 1.66 1.83 2.15 2.56 1.83 1.30 0.89 0.74 0.72 0.79 1.03 1.48 1.60 0.64 0.34 1.32 2.23 1.50 0.34 0.03 0.00 0.02 0.04 0.05 0.07 0.06 0.07 0.14 0.37 0.44 0.40 0.09 0.05 0.06 0.13 0.28 0.17 0.18 0.26 0.06 0.04 0.07 0.10 0.20 0.21 0.38
1.33 1.41 1.38 1.47 1.73 2.16 2.36 1.49 1.02 1.01 1.17 1.91 2.42 1.80 0.81 0.74 2.04 1.68 0.56 0.12 0.06 0.02 0.02 0.06 0.05 0.08 0.19 0.21 0.11 0.11 0.22 0.34 0.23 0.25 0.10 0.09 0.20 0.17 0.04 0.10 0.04 0.05 0.08 0.10 0.31 0.28 0.37
1.23 1.33 1.18 1.19 1.31 1.56 2.18 3.11 2.32 1.86 2.05 2.36 2.98 2.03 1.84 1.16 1.16 0.48 0.19 0.17 0.11 0.07 0.03 0.06 0.08 0.06 0.13 0.18 0.14 0.17 0.15 0.13 0.17 0.20 0.25 0.16 0.36 0.54 0.35 0.17 0.10 0.12 0.06 0.13 0.26 0.23 0.41
1.23 1.24 1.07 1.10 1.20 1.33 1.52 2.30 3.01 2.62 2.37 2.59 3.35 3.01 3.68 2.64 0.83 0.24 0.25 0.29 0.20 0.08 0.07 0.04 0.04 0.05 0.06 0.07 0.06 0.14 0.19 0.16 0.06 0.10 0.15 0.18 0.23 0.49 0.78 0.61 0.50 0.26 0.08 0.06 0.13 0.32 0.54
1.24 1.11 1.01 1.02 1.15 1.34 1.45 1.71 2.45 2.42 2.48 4.19 4.53 1.84 1.12 1.76 1.07 0.25 0.22 0.27 0.23 0.20 0.08 0.08 0.11 0.08 0.06 0.08 0.06 0.07 0.15 0.18 0.13 0.12 0.21 0.27 0.24 0.17 0.13 0.17 0.65 0.50 0.18 0.15 0.24 0.15 0.29
1.24 1.02 0.95 1.01 1.12 1.35 1.69 1.72 2.17 2.69 3.18 5.56 4.66 1.14 0.41 0.21 0.31 0.52 0.32 0.16 0.16 0.13 0.18 0.14 0.13 0.11 0.08 0.11 0.12 0.11 0.12 0.25 0.20 0.16 0.25 0.39 0.39 0.16 0.08 0.08 0.41 0.42 0.15 0.11 0.14 0.16 0.29
1.06 0.98 0.85 0.90 0.93 1.04 1.41 1.71 1.93 2.79 4.66 6.96 3.54 0.55 0.46 0.47 0.44 0.69 0.46 0.16 0.11 0.09 0.11 0.08 0.08 0.11 0.16 0.10 0.14 0.14 0.14 0.14 0.14 0.13 0.22 0.32 0.49 0.50 0.32 0.14 0.55 0.92 0.74 0.50 0.36 0.44 0.31
0.82 0.82 0.83 0.71 0.79 0.76 0.90 1.12 1.49 2.35 4.64 4.99 2.64 0.62 0.97 0.81 0.36 0.27 0.10 0.08 0.08 0.06 0.09 0.04 0.09 0.15 0.08 0.14 0.15 0.13 0.12 0.09 0.07 0.07 0.10 0.28 0.43 0.56 0.40 0.39 1.00 0.95 0.65 0.68 0.89 0.67 0.77
0.84 0.76 0.84 0.70 0.71 0.76 0.75 0.81 1.16 1.42 3.14 4.26 2.69 1.06 0.91 0.72 0.24 0.20 0.16 0.15 0.15 0.12 0.12 0.10 0.08 0.17 0.20 0.31 0.40 0.44 0.38 0.30 0.17 0.10 0.11 0.11 0.30 0.69 0.63 0.64 0.61 0.40 0.25 0.28 0.45 0.40 0.30
0.86 0.80 0.88 0.80 0.69 0.73 0.70 0.73 0.88 0.91 1.72 3.54 3.65 1.82 1.67 1.10 0.42 0.12 0.13 0.12 0.20 0.31 0.31 0.17 0.23 0.22 0.37 0.64 0.71 0.58 0.44 0.37 0.32 0.39 0.14 0.18 0.22 0.50 0.46 0.47 0.41 0.46 0.29 0.10 0.26 0.64 0.35
0.80 0.84 0.88 0.86 0.73 0.68 0.74 0.68 0.58 0.78 1.30 2.23 2.79 2.12 3.26 2.15 0.35 0.21 0.24 0.17 0.13 0.42 0.58 0.36 0.43 0.48 0.52 0.72 0.62 0.37 0.30 0.19 0.28 0.61 0.56 0.34 0.43 0.50 0.34 0.50 0.31 0.11 0.17 0.20 0.83 0.99 0.50
0.80 0.86 0.81 0.74 0.65 0.67 0.78 0.67 0.54 0.74 1.38 2.04 1.98 1.44 3.42 2.16 0.51 0.34 0.24 0.12 0.12 0.44 0.76 0.50 0.70 0.70 0.74 0.66 0.49 0.37 0.25 0.19 0.22 0.46 0.78 0.64 0.52 0.53 0.57 0.56 0.39 0.09 0.19 0.67 1.29 0.67 0.67
0.78 0.88 0.80 0.71 0.57 0.55 0.71 0.69 0.70 0.89 1.53 1.88 1.98 1.48 2.55 2.71 1.09 0.46 0.36 0.14 0.09 0.17 0.52 0.64 0.53 0.41 0.32 0.53 0.46 0.31 0.26 0.23 0.20 0.45 0.71 0.80 0.43 0.57 0.40 0.46 0.31 0.20 0.27 0.23 0.16 0.15 0.11

GFSGBSN_prec_precacc_159.txt.gz
Total_Precipitation_Accumulation
0.45 0.29 0.27 0.30 0.30 0.26 0.25 0.23 0.18 0.14 0.09 0.06 0.06 0.05 0.04 0.03 0.02 0.02 0.02 0.01 0.00 0.01 0.01 0.00 0.01 0.02 0.01 0.00 0.00 0.00 0.00 0.00 0.00 0.00 0.00 0.00 0.00 0.00 0.00 0.00 0.00 0.00 0.00 0.00 0.00 0.00 0.00
1.18 0.92 0.60 0.44 0.32 0.25 0.23 0.25 0.27 0.26 0.24 0.19 0.14 0.11 0.08 0.06 0.05 0.04 0.01 0.00 0.01 0.01 0.01 0.01 0.01 0.03 0.01 0.00 0.00 0.00 0.00 0.00 0.00 0.00 0.00 0.00 0.00 0.00 0.00 0.00 0.00 0.00 0.00 0.00 0.00 0.00 0.00
0.56 0.66 0.76 0.69 0.50 0.44 0.36 0.24 0.21 0.19 0.20 0.21 0.18 0.16 0.17 0.14 0.11 0.09 0.04 0.01 0.00 0.01 0.01 0.01 0.02 0.04 0.01 0.00 0.00 0.00 0.00 0.00 0.00 0.00 0.00 0.00 0.00 0.00 0.00 0.00 0.00 0.00 0.00 0.00 0.00 0.00 0.00
0.38 0.32 0.34 0.39 0.41 0.31 0.24 0.21 0.20 0.16 0.13 0.12 0.10 0.09 0.08 0.07 0.07 0.06 0.04 0.01 0.00 0.01 0.01 0.01 0.02 0.03 0.00 0.00 0.00 0.00 0.00 0.00 0.00 0.00 0.00 0.00 0.00 0.00 0.00 0.00 0.00 0.00 0.00 0.00 0.00 0.00 0.00
0.45 0.40 0.34 0.27 0.22 0.21 0.20 0.17 0.14 0.11 0.11 0.11 0.12 0.12 0.11 0.11 0.15 0.15 0.11 0.03 0.00 0.01 0.01 0.01 0.01 0.02 0.00 0.00 0.00 0.00 0.00 0.00 0.00 0.00 0.00 0.00 0.00 0.00 0.00 0.00 0.00 0.00 0.00 0.00 0.00 0.00 0.00
0.35 0.32 0.30 0.27 0.24 0.24 0.25 0.23 0.18 0.15 0.13 0.12 0.09 0.12 0.12 0.12 0.14 0.16 0.11 0.07 0.02 0.00 0.00 0.00 0.02 0.01 0.00 0.00 0.00 0.00 0.00 0.01 0.02 0.00 0.00 0.00 0.00 0.00 0.00 0.00 0.00 0.00 0.00 0.00 0.00 0.00 0.00
0.45 0.38 0.31 0.26 0.22 0.20 0.20 0.22 0.25 0.22 0.18 0.16 0.12 0.10 0.12 0.13 0.15 0.16 0.09 0.06 0.07 0.09 0.04 0.01 0.01 0.01 0.00 0.00 0.00 0.00 0.00 0.00 0.01 0.01 0.01 0.03 0.00 0.00 0.01 0.00 0.00 0.00 0.00 0.00 0.00 0.00 0.00
0.47 0.43 0.39 0.34 0.31 0.31 0.31 0.32 0.28 0.22 0.19 0.16 0.14 0.13 0.12 0.11 0.15 0.14 0.04 0.05 0.03 0.11 0.16 0.03 0.01 0.00 0.00 0.00 0.00 0.00 0.00 0.01 0.02 0.04 0.05 0.04 0.04 0.00 0.00 0.00 0.00 0.02 0.02 0.00 0.00 0.00 0.00
0.58 0.52 0.45 0.38 0.34 0.31 0.30 0.30 0.28 0.30 0.26 0.18 0.14 0.15 0.16 0.15 0.14 0.07 0.01 0.01 0.01 0.07 0.22 0.03 0.00 0.00 0.00 0.01 0.00 0.00 0.00 0.00 0.05 0.11 0.06 0.09 0.03 0.00 0.00 0.00 0.01 0.01 0.01 0.00 0.00 0.00 0.02
0.68 0.63 0.54 0.47 0.39 0.35 0.33 0.33 0.28 0.25 0.25 0.24 0.20 0.19 0.22 0.26 0.13 0.04 0.03 0.01 0.03 0.21 0.42 0.04 0.02 0.03 0.04 0.07 0.01 0.00 0.00 0.00 0.07 0.09 0.09 0.21 0.04 0.02 0.03 0.02 0.01 0.06 0.00 0.00 0.02 0.08 0.10
0.71 0.62 0.54 0.48 0.45 0.42 0.37 0.32 0.28 0.26 0.28 0.34 0.30 0.24 0.27 0.27 0.15 0.10 0.04 0.01 0.13 0.37 0.50 0.05 0.11 0.05 0.07 0.05 0.01 0.06 0.00 0.00 0.02 0.07 0.20 0.33 0.21 0.24 0.22 0.05 0.02 0.07 0.00 0.01 0.01 0.02 0.08
0.75 0.62 0.53 0.46 0.45 0.43 0.39 0.36 0.31 0.29 0.26 0.28 0.35 0.31 0.36 0.30 0.14 0.03 0.01 0.09 0.30 0.78 0.36 0.03 0.14 0.10 0.14 0.09 0.01 0.02 0.01 0.00 0.00 0.05 0.06 0.10 0.03 0.06 0.05 0.00 0.01 0.02 0.02 0.03 0.05 0.09 0.22
1.21 0.94 0.78 0.62 0.58 0.52 0.45 0.40 0.33 0.31 0.27 0.28 0.34 0.34 0.37 0.18 0.15 0.11 0.18 0.50 0.89 0.59 0.05 0.03 0.08 0.25 0.16 0.20 0.22 0.05 0.02 0.00 0.00 0.03 0.07 0.07 0.06 0.05 0.03 0.12 0.05 0.05 0.04 0.14 0.31 0.24 0.12
2.34 1.53 1.11 0.88 0.64 0.55 0.47 0.45 0.39 0.34 0.31 0.38 0.40 0.38 0.36 0.19 0.10 0.15 0.41 1.09 0.88 0.27 0.02 0.00 0.11 0.23 0.24 0.17 0.24 0.05 0.02 0.02 0.02 0.02 0.04 0.05 0.19 0.07 0.05 0.27 0.12 0.05 0.05 0.10 0.36 0.22 0.19
3.24 2.97 2.13 1.40 1.04 0.78 0.61 0.52 0.51 0.49 0.50 0.51 0.71 0.57 0.49 0.20 0.13 0.37 0.94 1.03 0.38 0.19 0.01 0.00 0.01 0.10 0.11 0.11 0.45 0.54 0.44 0.13 0.10 0.06 0.20 0.14 0.18 0.08 0.04 0.05 0.07 0.08 0.08 0.05 0.20 0.23 0.32
2.41 2.71 2.99 2.92 1.62 1.09 0.87 0.68 0.53 0.65 0.73 0.73 0.76 0.83 0.52 0.18 0.44 0.97 1.49 0.68 0.07 0.03 0.01 0.01 0.01 0.02 0.12 0.08 0.23 0.85 0.41 0.17 0.04 0.02 0.10 0.19 0.23 0.09 0.12 0.08 0.05 0.04 0.04 0.10 0.23 0.52 0.42
1.67 1.90 2.20 2.53 2.74 1.86 1.30 0.89 0.74 0.72 0.80 1.06 1.51 1.60 0.64 0.34 1.33 2.24 1.51 0.34 0.03 0.00 0.02 0.04 0.05 0.07 0.06 0.07 0.14 0.37 0.44 0.40 0.09 0.05 0.06 0.13 0.28 0.17 0.18 0.26 0.06 0.04 0.07 0.10 0.20 0.23 0.41
1.43 1.56 1.64 1.88 2.06 2.31 2.38 1.49 1.02 1.01 1.18 1.95 2.42 1.80 0.81 0.74 2.05 1.69 0.56 0.12 0.06 0.02 0.02 0.06 0.05 0.08 0.19 0.21 0.11 0.11 0.22 0.34 0.23 0.25 0.10 0.09 0.20 0.17 0.04 0.10 0.04 0.05 0.08 0.10 0.34 0.32 0.41
1.34 1.48 1.44 1.56 1.62 1.72 2.23 3.11 2.32 1.86 2.06 2.37 2.98 2.04 1.86 1.19 1.16 0.48 0.19 0.17 0.11 0.07 0.03 0.06 0.08 0.06 0.13 0.18 0.14 0.17 0.15 0.13 0.17 0.20 0.25 0.16 0.36 0.54 0.35 0.17 0.10 0.12 0.06 0.13 0.27 0.27 0.47
1.45 1.39 1.30 1.47 1.59 1.47 1.58 2.31 3.01 2.63 2.38 2.59 3.36 3.01 3.71 2.68 0.83 0.24 0.25 0.29 0.20 0.08 0.07 0.04 0.04 0.05 0.06 0.07 0.06 0.14 0.19 0.16 0.06 0.10 0.15 0.18 0.23 0.49 0.78 0.61 0.51 0.27 0.08 0.06 0.15 0.44 0.62
1.57 1.37 1.20 1.31 1.58 1.55 1.50 1.72 2.45 2.42 2.48 4.19 4.54 1.85 1.12 1.78 1.08 0.26 0.22 0.27 0.23 0.20 0.08 0.08 0.11 0.08 0.06 0.08 0.06 0.07 0.15 0.18 0.13 0.12 0.21 0.28 0.24 0.17 0.13 0.17 0.65 0.50 0.18 0.15 0.25 0.17 0.39
1.60 1.43 1.24 1.22 1.48 1.63 1.75 1.72 2.17 2.69 3.20 5.60 4.67 1.14 0.41 0.21 0.31 0.53 0.33 0.16 0.16 0.13 0.18 0.14 0.13 0.11 0.08 0.11 0.12 0.11 0.12 0.25 0.20 0.16 0.25 0.42 0.40 0.16 0.09 0.09 0.41 0.43 0.15 0.11 0.14 0.17 0.32
1.47 1.38 1.34 1.19 1.17 1.30 1.46 1.71 1.93 2.80 4.69 6.99 3.56 0.56 0.46 0.47 0.44 0.69 0.46 0.16 0.11 0.09 0.11 0.08 0.08 0.11 0.16 0.10 0.14 0.14 0.14 0.14 0.15 0.14 0.23 0.34 0.53 0.57 0.35 0.16 0.60 0.96 0.75 0.50 0.36 0.44 0.31
1.07 1.28 1.28 1.17 1.03 0.95 0.95 1.12 1.49 2.35 4.65 5.00 2.65 0.63 0.98 0.82 0.36 0.28 0.10 0.08 0.08 0.06 0.09 0.04 0.09 0.16 0.08 0.14 0.15 0.13 0.13 0.10 0.08 0.08 0.11 0.30 0.46 0.64 0.44 0.45 1.08 0.96 0.65 0.68 0.89 0.67 0.77
1.00 1.08 1.29 1.10 1.04 0.91 0.79 0.81 1.16 1.42 3.14 4.29 2.71 1.08 0.92 0.73 0.25 0.21 0.16 0.15 0.15 0.13 0.13 0.10 0.08 0.17 0.22 0.42 0.48 0.47 0.39 0.31 0.17 0.10 0.12 0.12 0.32 0.76 0.67 0.68 0.62 0.40 0.25 0.28 0.45 0.40 0.30
1.01 1.04 1.26 1.13 1.04 0.88 0.73 0.73 0.88 0.91 1.72 3.58 3.69 1.84 1.71 1.13 0.43 0.12 0.13 0.13 0.21 0.32 0.31 0.18 0.23 0.23 0.42 0.75 0.79 0.64 0.46 0.38 0.33 0.39 0.14 0.18 0.25 0.57 0.51 0.53 0.43 0.47 0.29 0.10 0.26 0.64 0.35
1.01 1.06 1.14 1.17 1.00 0.79 0.75 0.68 0.58 0.78 1.31 2.24 2.83 2.15 3.29 2.20 0.36 0.22 0.24 0.18 0.14 0.44 0.60 0.38 0.45 0.52 0.56 0.80 0.72 0.41 0.31 0.21 0.32 0.66 0.58 0.36 0.49 0.58 0.41 0.63 0.35 0.11 0.18 0.21 0.84 1.03 0.50
1.08 1.10 1.06 0.95 0.85 0.73 0.78 0.67 0.54 0.75 1.39 2.07 2.03 1.49 3.45 2.18 0.51 0.34 0.24 0.14 0.13 0.47 0.78 0.55 0.78 0.76 0.81 0.73 0.54 0.42 0.30 0.22 0.24 0.50 0.83 0.67 0.59 0.61 0.70 0.74 0.47 0.09 0.19 0.67 1.30 0.67 0.67
1.14 1.11 1.03 0.86 0.70 0.58 0.71 0.69 0.70 0.89 1.55 1.91 2.03 1.53 2.60 2.75 1.09 0.46 0.36 0.14 0.09 0.19 0.57 0.72 0.60 0.49 0.37 0.57 0.49 0.38 0.32 0.29 0.25 0.48 0.73 0.84 0.46 0.62 0.45 0.53 0.35 0.20 0.27 0.23 0.16 0.15 0.11

GFSGBSN_prec_precacc_165.txt.gz
Total_Precipitation_Accumulation
0.45 0.29 0.27 0.30 0.30 0.26 0.25 0.23 0.18 0.14 0.09 0.06 0.06 0.05 0.04 0.03 0.02 0.02 0.02 0.01 0.00 0.01 0.01 0.00 0.01 0.02 0.01 0.00 0.00 0.00 0.00 0.00 0.00 0.00 0.00 0.00 0.00 0.00 0.00 0.00 0.00 0.00 0.00 0.00 0.00 0.00 0.00
1.46 1.22 0.77 0.49 0.33 0.25 0.23 0.25 0.27 0.26 0.24 0.19 0.15 0.11 0.08 0.06 0.05 0.04 0.01 0.00 0.01 0.01 0.01 0.01 0.01 0.03 0.01 0.00 0.00 0.00 0.00 0.00 0.00 0.00 0.00 0.00 0.00 0.00 0.00 0.00 0.00 0.00 0.00 0.00 0.00 0.00 0.00
0.65 0.82 1.07 1.07 0.86 0.70 0.50 0.30 0.26 0.25 0.25 0.24 0.21 0.17 0.17 0.14 0.11 0.09 0.04 0.01 0.00 0.01 0.01 0.01 0.02 0.04 0.01 0.00 0.00 0.00 0.00 0.00 0.00 0.00 0.00 0.00 0.00 0.00 0.00 0.00 0.00 0.00 0.00 0.00 0.00 0.00 0.00
0.49 0.50 0.50 0.59 0.79 0.77 0.72 0.68 0.57 0.44 0.33 0.36 0.32 0.22 0.13 0.08 0.08 0.07 0.04 0.01 0.00 0.01 0.01 0.01 0.02 0.03 0.00 0.00 0.00 0.00 0.00 0.00 0.00 0.00 0.00 0.00 0.00 0.00 0.00 0.00 0.00 0.00 0.00 0.00 0.00 0.00 0.00
0.52 0.55 0.58 0.58 0.61 0.60 0.60 0.61 0.53 0.44 0.45 0.41 0.34 0.23 0.15 0.12 0.15 0.16 0.11 0.03 0.00 0.01 0.01 0.01 0.01 0.02 0.00 0.00 0.00 0.00 0.00 0.00 0.00 0.00 0.00 0.00 0.00 0.00 0.00 0.00 0.00 0.00 0.00 0.00 0.00 0.00 0.00
0.38 0.37 0.37 0.39 0.40 0.37 0.33 0.27 0.21 0.20 0.20 0.21 0.18 0.16 0.15 0.13 0.14 0.16 0.11 0.07 0.02 0.00 0.00 0.00 0.02 0.01 0.00 0.00 0.00 0.00 0.00 0.01 0.02 0.00 0.00 0.00 0.00 0.00 0.00 0.00 0.00 0.00 0.00 0.00 0.00 0.00 0.00
0.45 0.38 0.32 0.28 0.24 0.23 0.23 0.25 0.27 0.24 0.19 0.17 0.13 0.11 0.12 0.13 0.15 0.16 0.09 0.06 0.07 0.09 0.04 0.01 0.01 0.01 0.00 0.00 0.00 0.00 0.00 0.00 0.01 0.01 0.01 0.03 0.00 0.00 0.01 0.00 0.00 0.00 0.00 0.00 0.00 0.00 0.00
0.49 0.45 0.39 0.35 0.32 0.32 0.32 0.33 0.29 0.23 0.20 0.16 0.14 0.13 0.12 0.11 0.15 0.14 0.04 0.05 0.03 0.11 0.16 0.03 0.01 0.00 0.00 0.00 0.00 0.00 0.00 0.01 0.02 0.04 0.05 0.04 0.04 0.00 0.00 0.00 0.00 0.02 0.02 0.00 0.00 0.00 0.00
0.60 0.55 0.47 0.40 0.36 0.31 0.30 0.31 0.30 0.31 0.27 0.19 0.15 0.15 0.16 0.15 0.14 0.07 0.01 0.01 0.01 0.07 0.22 0.03 0.00 0.00 0.00 0.01 0.00 0.00 0.00 0.00 0.05 0.11 0.06 0.09 0.03 0.00 0.00 0.00 0.01 0.01 0.01 0.00 0.00 0.00 0.02
0.69 0.63 0.55 0.47 0.41 0.38 0.35 0.34 0.30 0.26 0.26 0.24 0.21 0.19 0.22 0.26 0.13 0.04 0.03 0.01 0.03 0.21 0.42 0.04 0.02 0.03 0.04 0.07 0.01 0.00 0.00 0.00 0.07 0.09 0.09 0.21 0.04 0.02 0.03 0.02 0.01 0.06 0.00 0.00 0.02 0.08 0.10
0.71 0.62 0.54 0.49 0.46 0.43 0.39 0.34 0.29 0.28 0.29 0.35 0.30 0.24 0.27 0.27 0.15 0.10 0.04 0.01 0.13 0.37 0.50 0.05 0.11 0.05 0.07 0.05 0.01 0.06 0.00 0.00 0.02 0.07 0.20 0.33 0.21 0.24 0.22 0.05 0.02 0.07 0.00 0.01 0.01 0.02 0.08
0.77 0.63 0.53 0.46 0.45 0.43 0.40 0.36 0.31 0.29 0.27 0.28 0.36 0.31 0.36 0.30 0.14 0.03 0.01 0.09 0.30 0.79 0.36 0.03 0.14 0.10 0.14 0.09 0.01 0.02 0.01 0.00 0.00 0.05 0.06 0.10 0.03 0.06 0.05 0.00 0.01 0.02 0.02 0.03 0.05 0.09 0.22
1.22 0.95 0.78 0.62 0.58 0.52 0.45 0.40 0.34 0.31 0.27 0.28 0.34 0.35 0.37 0.18 0.15 0.11 0.18 0.50 0.90 0.60 0.05 0.03 0.08 0.25 0.16 0.20 0.22 0.05 0.02 0.00 0.00 0.03 0.07 0.07 0.06 0.05 0.03 0.12 0.05 0.05 0.04 0.14 0.31 0.24 0.12
2.34 1.55 1.16 0.90 0.64 0.55 0.47 0.45 0.40 0.34 0.31 0.38 0.41 0.39 0.36 0.19 0.11 0.15 0.42 1.09 0.88 0.27 0.02 0.00 0.11 0.23 0.24 0.17 0.24 0.05 0.02 0.02 0.02 0.02 0.04 0.05 0.19 0.07 0.05 0.27 0.12 0.05 0.05 0.10 0.36 0.22 0.19
3.24 2.97 2.19 1.50 1.10 0.81 0.62 0.52 0.51 0.50 0.50 0.51 0.72 0.59 0.51 0.21 0.13 0.37 0.94 1.04 0.38 0.19 0.01 0.00 0.01 0.10 0.11 0.11 0.45 0.54 0.44 0.13 0.10 0.06 0.20 0.14 0.18 0.08 0.04 0.05 0.07 0.08 0.08 0.05 0.20 0.23 0.32
2.42 2.71 3.02 3.03 1.76 1.19 0.94 0.71 0.54 0.65 0.73 0.73 0.78 0.87 0.53 0.20 0.44 0.98 1.50 0.68 0.07 0.03 0.01 0.01 0.01 0.02 0.12 0.08 0.23 0.85 0.41 0.17 0.04 0.02 0.10 0.19 0.23 0.09 0.12 0.08 0.05 0.04 0.04 0.10 0.23 0.53 0.42
1.67 1.90 2.21 2.58 2.90 2.08 1.46 0.99 0.78 0.74 0.80 1.07 1.54 1.63 0.66 0.36 1.36 2.26 1.51 0.34 0.03 0.00 0.02 0.04 0.05 0.07 0.06 0.07 0.14 0.37 0.44 0.40 0.09 0.05 0.06 0.13 0.28 0.17 0.18 0.26 0.06 0.04 0.07 0.10 0.21 0.23 0.41
1.43 1.57 1.64 1.88 2.14 2.47 2.62 1.71 1.17 1.11 1.23 1.99 2.48 1.83 0.86 0.78 2.09 1.70 0.56 0.12 0.06 0.02 0.02 0.06 0.05 0.08 0.19 0.21 0.11 0.11 0.22 0.34 0.23 0.25 0.10 0.09 0.20 0.17 0.04 0.10 0.04 0.05 0.08 0.10 0.34 0.32 0.42
1.34 1.48 1.44 1.56 1.69 1.83 2.39 3.31 2.56 2.09 2.21 2.43 3.06 2.06 1.93 1.27 1.17 0.48 0.19 0.17 0.11 0.07 0.03 0.06 0.08 0.06 0.13 0.18 0.14 0.17 0.15 0.13 0.17 0.20 0.25 0.16 0.36 0.54 0.35 0.17 0.10 0.12 0.06 0.13 0.27 0.27 0.47
1.45 1.39 1.30 1.47 1.63 1.63 1.74 2.48 3.21 2.86 2.66 2.81 3.50 3.08 3.76 2.74 0.84 0.24 0.25 0.29 0.20 0.08 0.07 0.04 0.04 0.05 0.06 0.07 0.06 0.14 0.19 0.16 0.06 0.10 0.15 0.18 0.23 0.49 0.78 0.61 0.51 0.27 0.08 0.06 0.15 0.47 0.66
1.57 1.37 1.20 1.32 1.60 1.73 1.73 1.95 2.65 2.58 2.67 4.47 4.79 1.95 1.13 1.79 1.09 0.26 0.22 0.27 0.23 0.20 0.08 0.08 0.11 0.08 0.06 0.08 0.06 0.07 0.15 0.18 0.13 0.12 0.21 0.28 0.24 0.17 0.13 0.17 0.65 0.50 0.18 0.15 0.25 0.18 0.40
1.60 1.43 1.24 1.22 1.49 1.78 2.02 2.00 2.44 2.94 3.43 5.92 4.84 1.18 0.41 0.21 0.31 0.53 0.33 0.16 0.16 0.13 0.18 0.14 0.13 0.11 0.08 0.11 0.12 0.11 0.12 0.25 0.20 0.16 0.25 0.42 0.40 0.16 0.09 0.09 0.41 0.43 0.15 0.11 0.14 0.17 0.32
1.48 1.38 1.35 1.20 1.18 1.38 1.74 2.02 2.24 3.11 5.04 7.31 3.69 0.57 0.47 0.47 0.45 0.70 0.46 0.16 0.11 0.09 0.13 0.08 0.08 0.11 0.16 0.10 0.14 0.14 0.14 0.14 0.15 0.14 0.23 0.34 0.53 0.58 0.35 0.16 0.61 0.96 0.75 0.50 0.36 0.44 0.31
1.08 1.29 1.28 1.18 1.04 0.98 1.16 1.44 1.79 2.72 4.99 5.12 2.68 0.68 1.02 0.84 0.37 0.28 0.10 0.08 0.08 0.07 0.10 0.04 0.09 0.16 0.08 0.14 0.15 0.13 0.13 0.10 0.08 0.08 0.11 0.31 0.47 0.66 0.45 0.47 1.10 0.96 0.65 0.68 0.89 0.67 0.77
1.02 1.09 1.30 1.12 1.06 0.94 0.94 1.07 1.43 1.68 3.31 4.38 2.77 1.20 0.97 0.76 0.25 0.21 0.16 0.15 0.15 0.13 0.13 0.10 0.08 0.17 0.22 0.42 0.48 0.47 0.39 0.32 0.17 0.10 0.12 0.12 0.34 0.80 0.71 0.71 0.63 0.40 0.25 0.29 0.48 0.43 0.33
1.03 1.07 1.30 1.15 1.06 0.93 0.85 0.92 1.07 1.12 1.91 3.68 3.78 1.91 1.79 1.23 0.45 0.12 0.13 0.13 0.21 0.32 0.31 0.18 0.23 0.23 0.43 0.76 0.81 0.65 0.46 0.39 0.33 0.39 0.14 0.19 0.26 0.63 0.55 0.57 0.45 0.47 0.30 0.11 0.28 0.68 0.37
1.09 1.13 1.20 1.21 1.05 0.92 0.87 0.81 0.72 0.96 1.48 2.38 2.94 2.23 3.40 2.32 0.38 0.22 0.25 0.18 0.14 0.44 0.60 0.38 0.46 0.53 0.57 0.81 0.74 0.43 0.32 0.21 0.33 0.67 0.59 0.37 0.50 0.62 0.44 0.67 0.36 0.11 0.18 0.23 0.90 1.11 0.52
1.22 1.23 1.14 1.00 0.92 0.89 0.94 0.78 0.67 0.91 1.59 2.23 2.16 1.56 3.55 2.24 0.55 0.35 0.25 0.14 0.14 0.47 0.79 0.58 0.85 0.80 0.83 0.76 0.58 0.43 0.31 0.23 0.26 0.51 0.88 0.71 0.64 0.63 0.73 0.78 0.49 0.10 0.22 0.75 1.40 0.75 0.67
1.19 1.25 1.18 0.97 0.81 0.77 0.88 0.82 0.83 1.06 1.71 2.11 2.26 1.62 2.69 2.81 1.10 0.46 0.36 0.14 0.10 0.19 0.59 0.77 0.67 0.52 0.39 0.59 0.52 0.43 0.37 0.36 0.32 0.53 0.77 0.89 0.48 0.65 0.48 0.58 0.42 0.28 0.31 0.26 0.18 0.15 0.11